Time,TemperatureF,DewpointF,PressureIn,WindDirection,WindDirectionDegrees,WindSpeedMPH,WindSpeedGustMPH,Humidity,HourlyPrecipIn,Conditions,Clouds,dailyrainin,SolarRadiationWatts/m^2,SoftwareType,DateUTC
2013-09-29 00:02:00,55.9,49.1,30.29,SSW,205,2.0,3.0,78,0.00,,,0.00,0,Wunderground v.1.15,2013-09-29 04:02:00,
2013-09-29 00:04:00,55.9,49.1,30.29,SSW,205,2.0,3.0,78,0.00,,,0.00,0,Wunderground v.1.15,2013-09-29 04:04:00,
2013-09-29 00:05:00,55.9,49.1,30.29,SSW,205,2.0,3.0,78,0.00,,,0.00,0,Wunderground v.1.15,2013-09-29 04:05:00,
2013-09-29 00:10:00,55.7,49.3,30.29,SW,218,2.0,5.0,79,0.00,,,0.00,0,Wunderground v.1.15,2013-09-29 04:10:00,
2013-09-29 00:11:00,55.7,49.3,30.29,SSW,198,3.0,5.0,79,0.00,,,0.00,0,Wunderground v.1.15,2013-09-29 04:11:00,
2013-09-29 00:13:00,55.6,49.2,30.29,SSW,203,3.0,5.0,79,0.00,,,0.00,0,Wunderground v.1.15,2013-09-29 04:13:00,
2013-09-29 00:15:00,55.5,49.1,30.29,SW,226,2.0,5.0,79,0.00,,,0.00,0,Wunderground v.1.15,2013-09-29 04:15:00,
2013-09-29 00:16:00,55.5,49.1,30.29,SW,226,2.0,5.0,79,0.00,,,0.00,0,Wunderground v.1.15,2013-09-29 04:16:00,
2013-09-29 00:19:00,55.4,49.3,30.29,NW,306,2.0,5.0,80,0.00,,,0.00,0,Wunderground v.1.15,2013-09-29 04:19:00,
2013-09-29 00:20:00,55.3,49.2,30.29,NNW,340,1.0,2.0,80,0.00,,,0.00,0,Wunderground v.1.15,2013-09-29 04:20:00,
2013-09-29 00:22:00,55.3,49.2,30.29,SSW,201,1.0,3.0,80,0.00,,,0.00,0,Wunderground v.1.15,2013-09-29 04:22:00,
2013-09-29 00:26:00,55.3,49.2,30.29,SSW,202,2.0,4.0,80,0.00,,,0.00,0,Wunderground v.1.15,2013-09-29 04:26:00,
2013-09-29 00:27:00,55.3,49.2,30.29,SSW,207,2.0,4.0,80,0.00,,,0.00,0,Wunderground v.1.15,2013-09-29 04:27:00,
2013-09-29 00:29:00,55.3,49.2,30.29,West,273,2.0,6.0,80,0.00,,,0.00,0,Wunderground v.1.15,2013-09-29 04:29:00,
2013-09-29 00:30:00,55.4,49.3,30.29,NW,320,2.0,2.0,80,0.00,,,0.00,0,Wunderground v.1.15,2013-09-29 04:30:00,
2013-09-29 00:36:00,55.3,49.2,30.29,SW,232,2.0,2.0,80,0.00,,,0.00,0,Wunderground v.1.15,2013-09-29 04:36:00,
2013-09-29 00:37:00,55.3,49.2,30.29,SSW,211,2.0,2.0,80,0.00,,,0.00,0,Wunderground v.1.15,2013-09-29 04:37:00,
2013-09-29 00:40:00,55.2,49.1,30.29,NW,320,1.0,2.0,80,0.00,,,0.00,0,Wunderground v.1.15,2013-09-29 04:40:00,
2013-09-29 00:41:00,55.1,49.0,30.29,North,5,1.0,2.0,80,0.00,,,0.00,0,Wunderground v.1.15,2013-09-29 04:41:00,
2013-09-29 00:43:00,55.1,49.0,30.29,North,5,1.0,2.0,80,0.00,,,0.00,0,Wunderground v.1.15,2013-09-29 04:43:00,
2013-09-29 00:44:00,55.1,49.0,30.29,NNE,13,1.0,2.0,80,0.00,,,0.00,0,Wunderground v.1.15,2013-09-29 04:44:00,
2013-09-29 00:47:00,55.0,48.9,30.29,North,9,1.0,2.0,80,0.00,,,0.00,0,Wunderground v.1.15,2013-09-29 04:47:00,
2013-09-29 00:48:00,55.1,49.0,30.29,SSW,194,1.0,2.0,80,0.00,,,0.00,0,Wunderground v.1.15,2013-09-29 04:48:00,
2013-09-29 00:51:00,55.1,49.0,30.29,SW,217,1.0,4.0,80,0.00,,,0.00,0,Wunderground v.1.15,2013-09-29 04:51:00,
2013-09-29 00:52:00,55.2,49.1,30.30,SSW,205,2.0,4.0,80,0.00,,,0.00,0,Wunderground v.1.15,2013-09-29 04:52:00,
2013-09-29 00:54:00,55.2,48.8,30.29,SW,219,2.0,4.0,79,0.00,,,0.00,0,Wunderground v.1.15,2013-09-29 04:54:00,
2013-09-29 00:55:00,55.2,48.8,30.30,SW,219,2.0,4.0,79,0.00,,,0.00,0,Wunderground v.1.15,2013-09-29 04:55:00,
2013-09-29 00:56:00,55.2,48.8,30.30,SW,219,2.0,4.0,79,0.00,,,0.00,0,Wunderground v.1.15,2013-09-29 04:56:00,
2013-09-29 00:57:00,55.3,48.9,30.30,SW,219,2.0,4.0,79,0.00,,,0.00,0,Wunderground v.1.15,2013-09-29 04:57:00,
2013-09-29 00:59:00,55.3,48.9,30.30,SW,219,1.0,4.0,79,0.00,,,0.00,0,Wunderground v.1.15,2013-09-29 04:59:00,
2013-09-29 01:02:00,55.3,48.9,30.30,SSW,194,1.0,2.0,79,0.00,,,0.00,0,Wunderground v.1.15,2013-09-29 05:02:00,
2013-09-29 01:03:00,55.2,48.8,30.30,SSW,194,1.0,2.0,79,0.00,,,0.00,0,Wunderground v.1.15,2013-09-29 05:03:00,
2013-09-29 01:05:00,55.2,48.8,30.29,SSW,196,1.0,2.0,79,0.00,,,0.00,0,Wunderground v.1.15,2013-09-29 05:05:00,
2013-09-29 01:07:00,55.2,48.8,30.30,SSW,209,1.0,4.0,79,0.00,,,0.00,0,Wunderground v.1.15,2013-09-29 05:07:00,
2013-09-29 01:08:00,55.2,48.8,30.30,SSW,209,1.0,4.0,79,0.00,,,0.00,0,Wunderground v.1.15,2013-09-29 05:08:00,
2013-09-29 01:10:00,55.1,48.7,30.30,SSW,209,1.0,1.0,79,0.00,,,0.00,0,Wunderground v.1.15,2013-09-29 05:10:00,
2013-09-29 01:11:00,55.1,48.7,30.30,SSW,209,1.0,2.0,79,0.00,,,0.00,0,Wunderground v.1.15,2013-09-29 05:11:00,
2013-09-29 01:12:00,55.1,48.7,30.30,SSW,209,1.0,2.0,79,0.00,,,0.00,0,Wunderground v.1.15,2013-09-29 05:12:00,
2013-09-29 01:14:00,55.1,48.7,30.29,SSW,209,1.0,2.0,79,0.00,,,0.00,0,Wunderground v.1.15,2013-09-29 05:14:00,
2013-09-29 01:17:00,55.0,48.9,30.30,SSW,193,1.0,2.0,80,0.00,,,0.00,0,Wunderground v.1.15,2013-09-29 05:17:00,
2013-09-29 01:18:00,54.9,48.8,30.30,SSW,193,1.0,2.0,80,0.00,,,0.00,0,Wunderground v.1.15,2013-09-29 05:18:00,
2013-09-29 01:19:00,54.8,48.7,30.29,SSW,193,1.0,2.0,80,0.00,,,0.00,0,Wunderground v.1.15,2013-09-29 05:19:00,
2013-09-29 01:20:00,54.7,48.6,30.29,SSW,193,1.0,1.0,80,0.00,,,0.00,0,Wunderground v.1.15,2013-09-29 05:20:00,
2013-09-29 01:22:00,54.6,48.6,30.29,SSW,193,1.0,2.0,80,0.00,,,0.00,0,Wunderground v.1.15,2013-09-29 05:22:00,
2013-09-29 01:24:00,54.5,48.5,30.29,SSW,193,1.0,2.0,80,0.00,,,0.00,0,Wunderground v.1.15,2013-09-29 05:24:00,
2013-09-29 01:26:00,54.5,48.5,30.29,SSW,193,0.0,2.0,80,0.00,,,0.00,0,Wunderground v.1.15,2013-09-29 05:26:00,
2013-09-29 01:28:00,54.4,48.7,30.29,SSW,193,0.0,2.0,81,0.00,,,0.00,0,Wunderground v.1.15,2013-09-29 05:28:00,
2013-09-29 01:29:00,54.4,48.7,30.29,SSW,193,0.0,2.0,81,0.00,,,0.00,0,Wunderground v.1.15,2013-09-29 05:29:00,
2013-09-29 01:30:00,54.3,48.6,30.29,SSW,193,0.0,0.0,81,0.00,,,0.00,0,Wunderground v.1.15,2013-09-29 05:30:00,
2013-09-29 01:33:00,54.1,48.4,30.29,SSW,193,0.0,1.0,81,0.00,,,0.00,0,Wunderground v.1.15,2013-09-29 05:33:00,
2013-09-29 01:34:00,54.0,48.3,30.29,SSW,193,0.0,1.0,81,0.00,,,0.00,0,Wunderground v.1.15,2013-09-29 05:34:00,
2013-09-29 01:36:00,53.8,48.4,30.29,SSW,193,0.0,1.0,82,0.00,,,0.00,0,Wunderground v.1.15,2013-09-29 05:36:00,
2013-09-29 01:40:00,53.3,48.3,30.29,SSW,193,0.0,1.0,83,0.00,,,0.00,0,Wunderground v.1.15,2013-09-29 05:40:00,
2013-09-29 01:42:00,53.0,48.3,30.29,SSW,193,1.0,1.0,84,0.00,,,0.00,0,Wunderground v.1.15,2013-09-29 05:42:00,
2013-09-29 01:43:00,52.9,48.2,30.29,South,175,1.0,2.0,84,0.00,,,0.00,0,Wunderground v.1.15,2013-09-29 05:43:00,
2013-09-29 01:44:00,52.8,48.1,30.29,South,175,1.0,2.0,84,0.00,,,0.00,0,Wunderground v.1.15,2013-09-29 05:44:00,
2013-09-29 01:46:00,52.6,48.2,30.29,South,175,1.0,2.0,85,0.00,,,0.00,0,Wunderground v.1.15,2013-09-29 05:46:00,
2013-09-29 01:48:00,52.4,48.0,30.29,South,175,1.0,2.0,85,0.00,,,0.00,0,Wunderground v.1.15,2013-09-29 05:48:00,
2013-09-29 01:50:00,52.3,48.2,30.29,South,175,1.0,1.0,86,0.00,,,0.00,0,Wunderground v.1.15,2013-09-29 05:50:00,
2013-09-29 01:52:00,52.2,48.1,30.29,South,175,1.0,1.0,86,0.00,,,0.00,0,Wunderground v.1.15,2013-09-29 05:52:00,
2013-09-29 01:55:00,52.0,48.3,30.28,South,175,1.0,1.0,87,0.00,,,0.00,0,Wunderground v.1.15,2013-09-29 05:55:00,
2013-09-29 01:57:00,51.8,48.1,30.28,South,175,1.0,1.0,87,0.00,,,0.00,0,Wunderground v.1.15,2013-09-29 05:57:00,
2013-09-29 01:58:00,51.8,48.1,30.28,South,175,1.0,1.0,87,0.00,,,0.00,0,Wunderground v.1.15,2013-09-29 05:58:00,
2013-09-29 01:59:00,51.8,48.1,30.28,South,175,1.0,1.0,87,0.00,,,0.00,0,Wunderground v.1.15,2013-09-29 05:59:00,
2013-09-29 02:01:00,51.7,48.0,30.28,South,175,1.0,1.0,87,0.00,,,0.00,0,Wunderground v.1.15,2013-09-29 06:01:00,
2013-09-29 02:03:00,51.7,48.0,30.28,South,175,0.0,1.0,87,0.00,,,0.00,0,Wunderground v.1.15,2013-09-29 06:03:00,
2013-09-29 02:04:00,51.6,47.9,30.28,South,175,0.0,1.0,87,0.00,,,0.00,0,Wunderground v.1.15,2013-09-29 06:04:00,
2013-09-29 02:06:00,51.6,47.9,30.28,South,175,0.0,1.0,87,0.00,,,0.00,0,Wunderground v.1.15,2013-09-29 06:06:00,
2013-09-29 02:07:00,51.5,48.1,30.28,South,175,0.0,1.0,88,0.00,,,0.00,0,Wunderground v.1.15,2013-09-29 06:07:00,
2013-09-29 02:11:00,51.4,48.0,30.28,South,175,0.0,1.0,88,0.00,,,0.00,0,Wunderground v.1.15,2013-09-29 06:11:00,
2013-09-29 02:13:00,51.4,48.0,30.28,South,175,0.0,1.0,88,0.00,,,0.00,0,Wunderground v.1.15,2013-09-29 06:13:00,
2013-09-29 02:14:00,51.4,48.0,30.28,South,175,0.0,1.0,88,0.00,,,0.00,0,Wunderground v.1.15,2013-09-29 06:14:00,
2013-09-29 02:17:00,51.2,47.8,30.28,South,175,0.0,1.0,88,0.00,,,0.00,0,Wunderground v.1.15,2013-09-29 06:17:00,
2013-09-29 02:19:00,51.2,47.8,30.28,South,175,0.0,1.0,88,0.00,,,0.00,0,Wunderground v.1.15,2013-09-29 06:19:00,
2013-09-29 02:21:00,51.2,47.8,30.28,South,175,0.0,0.0,88,0.00,,,0.00,0,Wunderground v.1.15,2013-09-29 06:21:00,
2013-09-29 02:22:00,51.2,47.8,30.28,South,175,0.0,0.0,88,0.00,,,0.00,0,Wunderground v.1.15,2013-09-29 06:22:00,
2013-09-29 02:23:00,51.1,47.7,30.28,South,175,0.0,0.0,88,0.00,,,0.00,0,Wunderground v.1.15,2013-09-29 06:23:00,
2013-09-29 02:26:00,51.0,47.6,30.28,South,175,0.0,0.0,88,0.00,,,0.00,0,Wunderground v.1.15,2013-09-29 06:26:00,
2013-09-29 02:27:00,51.0,47.6,30.28,South,175,0.0,0.0,88,0.00,,,0.00,0,Wunderground v.1.15,2013-09-29 06:27:00,
2013-09-29 02:29:00,51.0,47.9,30.28,South,175,0.0,1.0,89,0.00,,,0.00,0,Wunderground v.1.15,2013-09-29 06:29:00,
2013-09-29 02:35:00,51.0,47.9,30.27,South,175,0.0,1.0,89,0.00,,,0.00,0,Wunderground v.1.15,2013-09-29 06:35:00,
2013-09-29 02:36:00,51.0,47.9,30.27,South,175,0.0,1.0,89,0.00,,,0.00,0,Wunderground v.1.15,2013-09-29 06:36:00,
2013-09-29 02:37:00,51.0,47.9,30.27,South,175,0.0,1.0,89,0.00,,,0.00,0,Wunderground v.1.15,2013-09-29 06:37:00,
2013-09-29 02:38:00,51.0,47.9,30.27,South,175,0.0,1.0,89,0.00,,,0.00,0,Wunderground v.1.15,2013-09-29 06:38:00,
2013-09-29 02:41:00,51.0,47.9,30.27,South,175,0.0,1.0,89,0.00,,,0.00,0,Wunderground v.1.15,2013-09-29 06:41:00,
2013-09-29 02:45:00,51.0,47.9,30.27,South,175,0.0,1.0,89,0.00,,,0.00,0,Wunderground v.1.15,2013-09-29 06:45:00,
2013-09-29 02:46:00,51.0,47.9,30.27,South,175,0.0,1.0,89,0.00,,,0.00,0,Wunderground v.1.15,2013-09-29 06:46:00,
2013-09-29 02:49:00,51.0,47.9,30.27,South,175,0.0,1.0,89,0.00,,,0.00,0,Wunderground v.1.15,2013-09-29 06:49:00,
2013-09-29 02:54:00,50.8,47.7,30.27,South,175,1.0,1.0,89,0.00,,,0.00,0,Wunderground v.1.15,2013-09-29 06:54:00,
2013-09-29 02:55:00,50.8,48.0,30.27,South,175,1.0,1.0,90,0.00,,,0.00,0,Wunderground v.1.15,2013-09-29 06:55:00,
2013-09-29 02:56:00,50.7,47.9,30.27,South,175,1.0,1.0,90,0.00,,,0.00,0,Wunderground v.1.15,2013-09-29 06:56:00,
2013-09-29 02:57:00,50.7,47.9,30.27,South,175,1.0,1.0,90,0.00,,,0.00,0,Wunderground v.1.15,2013-09-29 06:57:00,
2013-09-29 03:00:00,50.6,47.5,30.27,South,175,1.0,1.0,89,0.00,,,0.00,0,Wunderground v.1.15,2013-09-29 07:00:00,
2013-09-29 03:04:00,50.5,47.7,30.27,South,175,0.0,1.0,90,0.00,,,0.00,0,Wunderground v.1.15,2013-09-29 07:04:00,
2013-09-29 03:05:00,50.5,47.7,30.27,South,175,0.0,1.0,90,0.00,,,0.00,0,Wunderground v.1.15,2013-09-29 07:05:00,
2013-09-29 03:06:00,50.5,47.7,30.27,South,175,0.0,1.0,90,0.00,,,0.00,0,Wunderground v.1.15,2013-09-29 07:06:00,
2013-09-29 03:09:00,50.4,47.6,30.26,South,175,0.0,1.0,90,0.00,,,0.00,0,Wunderground v.1.15,2013-09-29 07:09:00,
2013-09-29 03:12:00,50.3,47.5,30.26,South,175,0.0,0.0,90,0.00,,,0.00,0,Wunderground v.1.15,2013-09-29 07:12:00,
2013-09-29 03:16:00,50.2,47.4,30.26,South,175,0.0,0.0,90,0.00,,,0.00,0,Wunderground v.1.15,2013-09-29 07:16:00,
2013-09-29 03:17:00,50.2,47.4,30.26,South,175,0.0,0.0,90,0.00,,,0.00,0,Wunderground v.1.15,2013-09-29 07:17:00,
2013-09-29 03:18:00,50.1,47.3,30.26,South,175,0.0,0.0,90,0.00,,,0.00,0,Wunderground v.1.15,2013-09-29 07:18:00,
2013-09-29 03:22:00,50.0,47.2,30.26,South,175,0.0,0.0,90,0.00,,,0.00,0,Wunderground v.1.15,2013-09-29 07:22:00,
2013-09-29 03:24:00,50.0,47.2,30.26,South,175,0.0,0.0,90,0.00,,,0.00,0,Wunderground v.1.15,2013-09-29 07:24:00,
2013-09-29 03:25:00,49.9,47.1,30.26,South,175,0.0,0.0,90,0.00,,,0.00,0,Wunderground v.1.15,2013-09-29 07:25:00,
2013-09-29 03:28:00,49.9,47.1,30.26,South,175,0.0,0.0,90,0.00,,,0.00,0,Wunderground v.1.15,2013-09-29 07:28:00,
2013-09-29 03:30:00,49.8,47.0,30.26,South,175,0.0,0.0,90,0.00,,,0.00,0,Wunderground v.1.15,2013-09-29 07:30:00,
2013-09-29 03:33:00,49.7,47.2,30.26,South,175,0.0,0.0,91,0.00,,,0.00,0,Wunderground v.1.15,2013-09-29 07:33:00,
2013-09-29 03:36:00,49.7,47.2,30.26,South,175,0.0,0.0,91,0.00,,,0.00,0,Wunderground v.1.15,2013-09-29 07:36:00,
2013-09-29 03:38:00,49.6,47.1,30.26,South,175,0.0,0.0,91,0.00,,,0.00,0,Wunderground v.1.15,2013-09-29 07:38:00,
2013-09-29 03:41:00,49.6,47.1,30.26,South,175,0.0,0.0,91,0.00,,,0.00,0,Wunderground v.1.15,2013-09-29 07:41:00,
2013-09-29 03:43:00,49.6,47.1,30.26,South,175,0.0,0.0,91,0.00,,,0.00,0,Wunderground v.1.15,2013-09-29 07:43:00,
2013-09-29 03:46:00,49.5,47.0,30.26,South,175,0.0,0.0,91,0.00,,,0.00,0,Wunderground v.1.15,2013-09-29 07:46:00,
2013-09-29 03:49:00,49.4,46.9,30.26,South,175,0.0,0.0,91,0.00,,,0.00,0,Wunderground v.1.15,2013-09-29 07:49:00,
2013-09-29 03:52:00,49.3,46.8,30.26,South,175,0.0,0.0,91,0.00,,,0.00,0,Wunderground v.1.15,2013-09-29 07:52:00,
2013-09-29 03:54:00,49.2,46.7,30.26,South,175,0.0,0.0,91,0.00,,,0.00,0,Wunderground v.1.15,2013-09-29 07:54:00,
2013-09-29 03:57:00,49.2,46.7,30.26,South,175,0.0,0.0,91,0.00,,,0.00,0,Wunderground v.1.15,2013-09-29 07:57:00,
2013-09-29 04:01:00,49.1,46.9,30.26,South,175,0.0,0.0,92,0.00,,,0.00,0,Wunderground v.1.15,2013-09-29 08:01:00,
2013-09-29 04:02:00,49.1,46.9,30.26,South,175,0.0,0.0,92,0.00,,,0.00,0,Wunderground v.1.15,2013-09-29 08:02:00,
2013-09-29 04:03:00,49.1,46.9,30.26,South,175,0.0,0.0,92,0.00,,,0.00,0,Wunderground v.1.15,2013-09-29 08:03:00,
2013-09-29 04:09:00,49.0,46.8,30.26,South,175,0.0,0.0,92,0.00,,,0.00,0,Wunderground v.1.15,2013-09-29 08:09:00,
2013-09-29 04:11:00,49.0,46.8,30.26,South,175,0.0,0.0,92,0.00,,,0.00,0,Wunderground v.1.15,2013-09-29 08:11:00,
2013-09-29 04:13:00,49.0,46.8,30.26,South,175,0.0,0.0,92,0.00,,,0.00,0,Wunderground v.1.15,2013-09-29 08:13:00,
2013-09-29 04:18:00,48.8,46.6,30.26,South,175,0.0,0.0,92,0.00,,,0.00,0,Wunderground v.1.15,2013-09-29 08:18:00,
2013-09-29 04:19:00,48.8,46.6,30.26,South,175,0.0,0.0,92,0.00,,,0.00,0,Wunderground v.1.15,2013-09-29 08:19:00,
2013-09-29 04:20:00,48.8,46.6,30.26,South,175,0.0,0.0,92,0.00,,,0.00,0,Wunderground v.1.15,2013-09-29 08:20:00,
2013-09-29 04:24:00,48.7,46.5,30.26,South,175,0.0,0.0,92,0.00,,,0.00,0,Wunderground v.1.15,2013-09-29 08:24:00,
2013-09-29 04:26:00,48.6,46.4,30.26,South,175,0.0,0.0,92,0.00,,,0.00,0,Wunderground v.1.15,2013-09-29 08:26:00,
2013-09-29 04:29:00,48.6,46.4,30.26,South,175,0.0,0.0,92,0.00,,,0.00,0,Wunderground v.1.15,2013-09-29 08:29:00,
2013-09-29 04:30:00,48.5,46.3,30.26,South,175,0.0,0.0,92,0.00,,,0.00,0,Wunderground v.1.15,2013-09-29 08:30:00,
2013-09-29 04:32:00,48.5,46.3,30.26,South,175,0.0,0.0,92,0.00,,,0.00,0,Wunderground v.1.15,2013-09-29 08:32:00,
2013-09-29 04:35:00,48.4,46.2,30.26,South,175,0.0,0.0,92,0.00,,,0.00,0,Wunderground v.1.15,2013-09-29 08:35:00,
2013-09-29 04:41:00,48.2,46.0,30.26,South,175,0.0,0.0,92,0.00,,,0.00,0,Wunderground v.1.15,2013-09-29 08:41:00,
2013-09-29 04:44:00,48.2,46.0,30.26,South,175,0.0,0.0,92,0.00,,,0.00,0,Wunderground v.1.15,2013-09-29 08:44:00,
2013-09-29 04:45:00,48.2,46.3,30.26,South,175,0.0,0.0,93,0.00,,,0.00,0,Wunderground v.1.15,2013-09-29 08:45:00,
2013-09-29 04:48:00,48.2,46.3,30.26,South,175,0.0,0.0,93,0.00,,,0.00,0,Wunderground v.1.15,2013-09-29 08:48:00,
2013-09-29 04:49:00,48.2,46.3,30.25,South,175,0.0,0.0,93,0.00,,,0.00,0,Wunderground v.1.15,2013-09-29 08:49:00,
2013-09-29 04:52:00,48.2,46.3,30.25,South,175,0.0,0.0,93,0.00,,,0.00,0,Wunderground v.1.15,2013-09-29 08:52:00,
2013-09-29 04:54:00,48.1,46.2,30.26,South,175,0.0,0.0,93,0.00,,,0.00,0,Wunderground v.1.15,2013-09-29 08:54:00,
2013-09-29 04:55:00,48.1,46.2,30.26,South,175,0.0,0.0,93,0.00,,,0.00,0,Wunderground v.1.15,2013-09-29 08:55:00,
2013-09-29 05:00:00,48.2,46.3,30.26,South,175,0.0,0.0,93,0.00,,,0.00,0,Wunderground v.1.15,2013-09-29 09:00:00,
2013-09-29 05:01:00,48.2,46.3,30.25,South,175,0.0,0.0,93,0.00,,,0.00,0,Wunderground v.1.15,2013-09-29 09:01:00,
2013-09-29 05:02:00,48.2,46.3,30.25,South,175,0.0,0.0,93,0.00,,,0.00,0,Wunderground v.1.15,2013-09-29 09:02:00,
2013-09-29 05:04:00,48.1,46.2,30.26,South,175,0.0,0.0,93,0.00,,,0.00,0,Wunderground v.1.15,2013-09-29 09:04:00,
2013-09-29 05:07:00,48.2,46.3,30.26,South,175,0.0,0.0,93,0.00,,,0.00,0,Wunderground v.1.15,2013-09-29 09:07:00,
2013-09-29 05:10:00,48.2,46.3,30.26,South,175,0.0,0.0,93,0.00,,,0.00,0,Wunderground v.1.15,2013-09-29 09:10:00,
2013-09-29 05:13:00,48.1,46.2,30.26,South,175,0.0,0.0,93,0.00,,,0.00,0,Wunderground v.1.15,2013-09-29 09:13:00,
2013-09-29 05:14:00,48.1,46.2,30.26,South,175,0.0,0.0,93,0.00,,,0.00,0,Wunderground v.1.15,2013-09-29 09:14:00,
2013-09-29 05:17:00,48.1,46.2,30.26,South,175,0.0,0.0,93,0.00,,,0.00,0,Wunderground v.1.15,2013-09-29 09:17:00,
2013-09-29 05:18:00,48.1,46.2,30.25,South,175,0.0,0.0,93,0.00,,,0.00,0,Wunderground v.1.15,2013-09-29 09:18:00,
2013-09-29 05:20:00,48.0,46.1,30.25,South,175,0.0,0.0,93,0.00,,,0.00,0,Wunderground v.1.15,2013-09-29 09:20:00,
2013-09-29 05:24:00,48.0,46.1,30.25,South,175,0.0,0.0,93,0.00,,,0.00,0,Wunderground v.1.15,2013-09-29 09:24:00,
2013-09-29 05:26:00,48.0,46.1,30.25,South,175,0.0,0.0,93,0.00,,,0.00,0,Wunderground v.1.15,2013-09-29 09:26:00,
2013-09-29 05:27:00,48.0,46.1,30.25,South,175,0.0,0.0,93,0.00,,,0.00,0,Wunderground v.1.15,2013-09-29 09:27:00,
2013-09-29 05:29:00,47.9,46.0,30.26,South,175,0.0,0.0,93,0.00,,,0.00,0,Wunderground v.1.15,2013-09-29 09:29:00,
2013-09-29 05:32:00,47.9,46.0,30.26,South,175,0.0,0.0,93,0.00,,,0.00,0,Wunderground v.1.15,2013-09-29 09:32:00,
2013-09-29 05:34:00,47.8,45.9,30.26,South,175,0.0,0.0,93,0.00,,,0.00,0,Wunderground v.1.15,2013-09-29 09:34:00,
2013-09-29 05:35:00,47.8,45.9,30.26,South,175,0.0,0.0,93,0.00,,,0.00,0,Wunderground v.1.15,2013-09-29 09:35:00,
2013-09-29 05:38:00,47.8,46.2,30.26,South,175,0.0,0.0,94,0.00,,,0.00,0,Wunderground v.1.15,2013-09-29 09:38:00,
2013-09-29 05:41:00,47.8,46.2,30.26,South,175,0.0,0.0,94,0.00,,,0.00,0,Wunderground v.1.15,2013-09-29 09:41:00,
2013-09-29 05:44:00,47.7,46.1,30.26,South,175,0.0,0.0,94,0.00,,,0.00,0,Wunderground v.1.15,2013-09-29 09:44:00,
2013-09-29 05:47:00,47.7,46.1,30.26,South,175,0.0,0.0,94,0.00,,,0.00,0,Wunderground v.1.15,2013-09-29 09:47:00,
2013-09-29 05:48:00,47.7,46.1,30.26,South,175,0.0,0.0,94,0.00,,,0.00,0,Wunderground v.1.15,2013-09-29 09:48:00,
2013-09-29 05:50:00,47.6,46.0,30.26,South,175,0.0,0.0,94,0.00,,,0.00,0,Wunderground v.1.15,2013-09-29 09:50:00,
2013-09-29 05:53:00,47.5,45.9,30.26,South,175,0.0,0.0,94,0.00,,,0.00,0,Wunderground v.1.15,2013-09-29 09:53:00,
2013-09-29 05:56:00,47.4,45.8,30.26,South,175,0.0,0.0,94,0.00,,,0.00,0,Wunderground v.1.15,2013-09-29 09:56:00,
2013-09-29 05:59:00,47.4,45.8,30.26,South,175,0.0,0.0,94,0.00,,,0.00,0,Wunderground v.1.15,2013-09-29 09:59:00,
2013-09-29 06:00:00,47.4,45.8,30.26,South,175,0.0,0.0,94,0.00,,,0.00,0,Wunderground v.1.15,2013-09-29 10:00:00,
2013-09-29 06:01:00,47.4,45.8,30.26,South,175,0.0,0.0,94,0.00,,,0.00,0,Wunderground v.1.15,2013-09-29 10:01:00,
2013-09-29 06:02:00,47.4,45.8,30.26,South,175,0.0,0.0,94,0.00,,,0.00,0,Wunderground v.1.15,2013-09-29 10:02:00,
2013-09-29 06:06:00,47.3,45.7,30.26,South,175,0.0,0.0,94,0.00,,,0.00,0,Wunderground v.1.15,2013-09-29 10:06:00,
2013-09-29 06:07:00,47.3,45.7,30.26,South,175,0.0,0.0,94,0.00,,,0.00,0,Wunderground v.1.15,2013-09-29 10:07:00,
2013-09-29 06:08:00,47.3,45.7,30.26,South,175,0.0,0.0,94,0.00,,,0.00,0,Wunderground v.1.15,2013-09-29 10:08:00,
2013-09-29 06:10:00,47.3,45.7,30.26,South,175,0.0,0.0,94,0.00,,,0.00,0,Wunderground v.1.15,2013-09-29 10:10:00,
2013-09-29 06:12:00,47.3,45.7,30.26,South,175,0.0,0.0,94,0.00,,,0.00,0,Wunderground v.1.15,2013-09-29 10:12:00,
2013-09-29 06:14:00,47.2,45.6,30.26,South,175,0.0,0.0,94,0.00,,,0.00,0,Wunderground v.1.15,2013-09-29 10:14:00,
2013-09-29 06:15:00,47.3,45.7,30.26,South,175,0.0,0.0,94,0.00,,,0.00,0,Wunderground v.1.15,2013-09-29 10:15:00,
2013-09-29 06:17:00,47.3,45.7,30.26,South,175,0.0,0.0,94,0.00,,,0.00,0,Wunderground v.1.15,2013-09-29 10:17:00,
2013-09-29 06:18:00,47.3,45.7,30.26,South,175,0.0,0.0,94,0.00,,,0.00,0,Wunderground v.1.15,2013-09-29 10:18:00,
2013-09-29 06:20:00,47.2,45.6,30.26,South,175,0.0,0.0,94,0.00,,,0.00,0,Wunderground v.1.15,2013-09-29 10:20:00,
2013-09-29 06:23:00,47.2,45.6,30.26,South,175,0.0,0.0,94,0.00,,,0.00,0,Wunderground v.1.15,2013-09-29 10:23:00,
2013-09-29 06:24:00,47.2,45.6,30.26,South,175,0.0,0.0,94,0.00,,,0.00,0,Wunderground v.1.15,2013-09-29 10:24:00,
2013-09-29 06:25:00,47.2,45.6,30.26,South,175,0.0,0.0,94,0.00,,,0.00,0,Wunderground v.1.15,2013-09-29 10:25:00,
2013-09-29 06:27:00,47.2,45.6,30.26,South,175,0.0,0.0,94,0.00,,,0.00,0,Wunderground v.1.15,2013-09-29 10:27:00,
2013-09-29 06:31:00,47.0,45.4,30.26,South,175,0.0,0.0,94,0.00,,,0.00,0,Wunderground v.1.15,2013-09-29 10:31:00,
2013-09-29 06:34:00,46.8,45.2,30.26,South,175,0.0,0.0,94,0.00,,,0.00,0,Wunderground v.1.15,2013-09-29 10:34:00,
2013-09-29 06:38:00,46.8,45.2,30.26,South,175,0.0,0.0,94,0.00,,,0.00,0,Wunderground v.1.15,2013-09-29 10:38:00,
2013-09-29 06:40:00,46.8,45.4,30.26,South,175,0.0,0.0,95,0.00,,,0.00,0,Wunderground v.1.15,2013-09-29 10:40:00,
2013-09-29 06:42:00,46.8,45.4,30.26,South,175,0.0,0.0,95,0.00,,,0.00,0,Wunderground v.1.15,2013-09-29 10:42:00,
2013-09-29 06:43:00,46.8,45.4,30.27,South,175,0.0,0.0,95,0.00,,,0.00,0,Wunderground v.1.15,2013-09-29 10:43:00,
2013-09-29 06:46:00,46.7,45.1,30.26,South,175,0.0,0.0,94,0.00,,,0.00,0,Wunderground v.1.15,2013-09-29 10:46:00,
2013-09-29 06:48:00,46.6,45.0,30.26,South,175,0.0,0.0,94,0.00,,,0.00,0,Wunderground v.1.15,2013-09-29 10:48:00,
2013-09-29 06:49:00,46.6,45.0,30.26,South,175,0.0,0.0,94,0.00,,,0.00,0,Wunderground v.1.15,2013-09-29 10:49:00,
2013-09-29 06:52:00,46.6,45.0,30.27,South,175,0.0,0.0,94,0.00,,,0.00,0,Wunderground v.1.15,2013-09-29 10:52:00,
2013-09-29 06:53:00,46.6,45.0,30.27,South,175,0.0,0.0,94,0.00,,,0.00,0,Wunderground v.1.15,2013-09-29 10:53:00,
2013-09-29 06:54:00,46.5,44.9,30.27,South,175,0.0,0.0,94,0.00,,,0.00,0,Wunderground v.1.15,2013-09-29 10:54:00,
2013-09-29 06:55:00,46.6,45.0,30.27,South,175,0.0,0.0,94,0.00,,,0.00,0,Wunderground v.1.15,2013-09-29 10:55:00,
2013-09-29 06:57:00,46.5,44.9,30.26,South,175,0.0,0.0,94,0.00,,,0.00,0,Wunderground v.1.15,2013-09-29 10:57:00,
2013-09-29 07:00:00,46.5,44.9,30.26,South,175,0.0,0.0,94,0.00,,,0.00,0,Wunderground v.1.15,2013-09-29 11:00:00,
2013-09-29 07:01:00,46.5,44.9,30.26,South,175,0.0,0.0,94,0.00,,,0.00,0,Wunderground v.1.15,2013-09-29 11:01:00,
2013-09-29 07:03:00,46.5,44.9,30.26,South,175,0.0,0.0,94,0.00,,,0.00,5,Wunderground v.1.15,2013-09-29 11:03:00,
2013-09-29 07:04:00,46.5,44.9,30.26,South,175,0.0,0.0,94,0.00,,,0.00,5,Wunderground v.1.15,2013-09-29 11:04:00,
2013-09-29 07:07:00,46.4,45.0,30.26,South,175,0.0,0.0,95,0.00,,,0.00,5,Wunderground v.1.15,2013-09-29 11:07:00,
2013-09-29 07:09:00,46.4,45.0,30.26,South,175,0.0,0.0,95,0.00,,,0.00,7,Wunderground v.1.15,2013-09-29 11:09:00,
2013-09-29 07:11:00,46.4,45.0,30.27,South,175,0.0,0.0,95,0.00,,,0.00,7,Wunderground v.1.15,2013-09-29 11:11:00,
2013-09-29 07:13:00,46.4,45.0,30.27,South,175,0.0,0.0,95,0.00,,,0.00,9,Wunderground v.1.15,2013-09-29 11:13:00,
2013-09-29 07:15:00,46.4,45.0,30.27,South,175,0.0,0.0,95,0.00,,,0.00,9,Wunderground v.1.15,2013-09-29 11:15:00,
2013-09-29 07:19:00,46.4,45.0,30.27,SSW,192,1.0,2.0,95,0.00,,,0.00,11,Wunderground v.1.15,2013-09-29 11:19:00,
2013-09-29 07:20:00,46.4,45.0,30.27,SSW,192,1.0,2.0,95,0.00,,,0.00,11,Wunderground v.1.15,2013-09-29 11:20:00,
2013-09-29 07:21:00,46.4,45.0,30.27,SSW,192,1.0,2.0,95,0.00,,,0.00,12,Wunderground v.1.15,2013-09-29 11:21:00,
2013-09-29 07:24:00,46.5,45.1,30.27,WSW,241,1.0,2.0,95,0.00,,,0.00,14,Wunderground v.1.15,2013-09-29 11:24:00,
2013-09-29 07:26:00,46.6,45.2,30.27,WNW,288,1.0,2.0,95,0.00,,,0.00,18,Wunderground v.1.15,2013-09-29 11:26:00,
2013-09-29 07:27:00,46.7,45.3,30.27,WNW,288,1.0,2.0,95,0.00,,,0.00,19,Wunderground v.1.15,2013-09-29 11:27:00,
2013-09-29 07:28:00,46.7,45.3,30.27,WNW,288,1.0,2.0,95,0.00,,,0.00,19,Wunderground v.1.15,2013-09-29 11:28:00,
2013-09-29 07:32:00,46.9,45.5,30.27,NW,306,1.0,1.0,95,0.00,,,0.00,25,Wunderground v.1.15,2013-09-29 11:32:00,
2013-09-29 07:34:00,47.0,45.6,30.27,NW,306,1.0,1.0,95,0.00,,,0.00,28,Wunderground v.1.15,2013-09-29 11:34:00,
2013-09-29 07:35:00,47.0,45.6,30.27,SW,229,1.0,1.0,95,0.00,,,0.00,28,Wunderground v.1.15,2013-09-29 11:35:00,
2013-09-29 07:36:00,47.0,45.6,30.27,SW,229,1.0,1.0,95,0.00,,,0.00,30,Wunderground v.1.15,2013-09-29 11:36:00,
2013-09-29 07:41:00,47.1,45.7,30.27,SW,229,0.0,0.0,95,0.00,,,0.00,35,Wunderground v.1.15,2013-09-29 11:41:00,
2013-09-29 07:42:00,47.2,45.8,30.27,SW,229,0.0,0.0,95,0.00,,,0.00,33,Wunderground v.1.15,2013-09-29 11:42:00,
2013-09-29 07:45:00,47.2,45.8,30.27,SW,223,0.0,1.0,95,0.00,,,0.00,30,Wunderground v.1.15,2013-09-29 11:45:00,
2013-09-29 07:47:00,47.3,45.9,30.27,SW,215,1.0,2.0,95,0.00,,,0.00,26,Wunderground v.1.15,2013-09-29 11:47:00,
2013-09-29 07:50:00,47.3,45.9,30.27,SSW,199,1.0,1.0,95,0.00,,,0.00,28,Wunderground v.1.15,2013-09-29 11:50:00,
2013-09-29 07:53:00,47.4,46.0,30.27,West,265,1.0,1.0,95,0.00,,,0.00,26,Wunderground v.1.15,2013-09-29 11:53:00,
2013-09-29 07:54:00,47.4,46.0,30.27,West,265,1.0,1.0,95,0.00,,,0.00,26,Wunderground v.1.15,2013-09-29 11:54:00,
2013-09-29 07:56:00,47.5,46.1,30.27,West,265,1.0,1.0,95,0.00,,,0.00,28,Wunderground v.1.15,2013-09-29 11:56:00,
2013-09-29 08:02:00,47.5,46.1,30.27,SW,221,1.0,1.0,95,0.00,,,0.00,28,Wunderground v.1.15,2013-09-29 12:02:00,
2013-09-29 08:03:00,47.5,46.1,30.27,North,5,1.0,1.0,95,0.00,,,0.00,30,Wunderground v.1.15,2013-09-29 12:03:00,
2013-09-29 08:07:00,47.6,46.2,30.27,NNE,13,1.0,1.0,95,0.00,,,0.00,33,Wunderground v.1.15,2013-09-29 12:07:00,
2013-09-29 08:08:00,47.6,46.2,30.27,NNE,13,1.0,1.0,95,0.00,,,0.00,37,Wunderground v.1.15,2013-09-29 12:08:00,
2013-09-29 08:12:00,47.8,46.4,30.27,South,183,1.0,1.0,95,0.00,,,0.00,42,Wunderground v.1.15,2013-09-29 12:12:00,
2013-09-29 08:14:00,47.9,46.5,30.27,South,183,1.0,1.0,95,0.00,,,0.00,51,Wunderground v.1.15,2013-09-29 12:14:00,
2013-09-29 08:16:00,47.9,46.5,30.27,South,183,0.0,1.0,95,0.00,,,0.00,60,Wunderground v.1.15,2013-09-29 12:16:00,
2013-09-29 08:18:00,47.9,46.5,30.27,South,183,0.0,1.0,95,0.00,,,0.00,62,Wunderground v.1.15,2013-09-29 12:18:00,
2013-09-29 08:19:00,47.9,46.5,30.27,South,183,0.0,1.0,95,0.00,,,0.00,84,Wunderground v.1.15,2013-09-29 12:19:00,
2013-09-29 08:22:00,48.0,46.6,30.27,SSE,167,0.0,2.0,95,0.00,,,0.00,76,Wunderground v.1.15,2013-09-29 12:22:00,
2013-09-29 08:24:00,48.1,46.7,30.27,SSE,167,1.0,2.0,95,0.00,,,0.00,49,Wunderground v.1.15,2013-09-29 12:24:00,
2013-09-29 08:25:00,48.1,46.7,30.27,SSE,161,1.0,2.0,95,0.00,,,0.00,76,Wunderground v.1.15,2013-09-29 12:25:00,
2013-09-29 08:28:00,48.2,46.8,30.27,SSE,160,1.0,2.0,95,0.00,,,0.00,46,Wunderground v.1.15,2013-09-29 12:28:00,
2013-09-29 08:29:00,48.2,46.8,30.27,SSE,160,1.0,2.0,95,0.00,,,0.00,42,Wunderground v.1.15,2013-09-29 12:29:00,
2013-09-29 08:31:00,48.2,46.8,30.27,South,190,2.0,4.0,95,0.00,,,0.00,40,Wunderground v.1.15,2013-09-29 12:31:00,
2013-09-29 08:33:00,48.2,46.8,30.27,South,190,1.0,4.0,95,0.00,,,0.00,40,Wunderground v.1.15,2013-09-29 12:33:00,
2013-09-29 08:34:00,48.2,46.8,30.27,South,182,1.0,4.0,95,0.00,,,0.00,39,Wunderground v.1.15,2013-09-29 12:34:00,
2013-09-29 08:38:00,48.3,46.9,30.27,South,182,1.0,4.0,95,0.00,,,0.00,39,Wunderground v.1.15,2013-09-29 12:38:00,
2013-09-29 08:40:00,48.5,47.1,30.26,South,182,1.0,1.0,95,0.00,,,0.00,39,Wunderground v.1.15,2013-09-29 12:40:00,
2013-09-29 08:43:00,48.6,47.2,30.26,South,182,1.0,1.0,95,0.00,,,0.00,37,Wunderground v.1.15,2013-09-29 12:43:00,
2013-09-29 08:44:00,48.7,47.3,30.26,South,182,1.0,1.0,95,0.00,,,0.00,37,Wunderground v.1.15,2013-09-29 12:44:00,
2013-09-29 08:45:00,48.7,47.3,30.26,South,182,1.0,1.0,95,0.00,,,0.00,37,Wunderground v.1.15,2013-09-29 12:45:00,
2013-09-29 08:46:00,48.8,47.4,30.26,South,182,1.0,1.0,95,0.00,,,0.00,37,Wunderground v.1.15,2013-09-29 12:46:00,
2013-09-29 08:49:00,49.1,47.7,30.27,WNW,282,1.0,2.0,95,0.00,,,0.00,39,Wunderground v.1.15,2013-09-29 12:49:00,
2013-09-29 08:52:00,49.2,47.8,30.27,South,191,1.0,2.0,95,0.00,,,0.00,46,Wunderground v.1.15,2013-09-29 12:52:00,
2013-09-29 08:55:00,49.4,48.0,30.26,South,182,1.0,2.0,95,0.00,,,0.00,62,Wunderground v.1.15,2013-09-29 12:55:00,
2013-09-29 08:56:00,49.5,48.1,30.26,South,170,1.0,2.0,95,0.00,,,0.00,141,Wunderground v.1.15,2013-09-29 12:56:00,
2013-09-29 08:59:00,49.7,48.0,30.26,SSE,161,1.0,2.0,94,0.00,,,0.00,301,Wunderground v.1.15,2013-09-29 12:59:00,
2013-09-29 09:00:00,49.9,48.2,30.26,SSE,161,1.0,1.0,94,0.00,,,0.00,316,Wunderground v.1.15,2013-09-29 13:00:00,
2013-09-29 09:02:00,50.0,48.3,30.27,SSW,211,1.0,3.0,94,0.00,,,0.00,297,Wunderground v.1.15,2013-09-29 13:02:00,
2013-09-29 09:03:00,50.1,48.2,30.27,South,178,1.0,3.0,93,0.00,,,0.00,309,Wunderground v.1.15,2013-09-29 13:03:00,
2013-09-29 09:04:00,50.2,48.3,30.26,SSE,165,1.0,3.0,93,0.00,,,0.00,315,Wunderground v.1.15,2013-09-29 13:04:00,
2013-09-29 09:08:00,50.6,48.7,30.27,South,175,2.0,5.0,93,0.00,,,0.00,327,Wunderground v.1.15,2013-09-29 13:08:00,
2013-09-29 09:10:00,50.8,48.6,30.26,SSW,201,2.0,3.0,92,0.00,,,0.00,332,Wunderground v.1.15,2013-09-29 13:10:00,
2013-09-29 09:14:00,51.5,49.3,30.26,SSE,163,2.0,3.0,92,0.00,,,0.00,345,Wunderground v.1.15,2013-09-29 13:14:00,
2013-09-29 09:16:00,51.8,49.3,30.26,SSE,159,2.0,3.0,91,0.00,,,0.00,352,Wunderground v.1.15,2013-09-29 13:16:00,
2013-09-29 09:17:00,52.0,49.5,30.26,SSE,159,2.0,3.0,91,0.00,,,0.00,357,Wunderground v.1.15,2013-09-29 13:17:00,
2013-09-29 09:18:00,52.1,49.6,30.26,SSE,153,2.0,4.0,91,0.00,,,0.00,360,Wunderground v.1.15,2013-09-29 13:18:00,
2013-09-29 09:23:00,52.6,49.4,30.26,South,185,2.0,4.0,89,0.00,,,0.00,374,Wunderground v.1.15,2013-09-29 13:23:00,
2013-09-29 09:24:00,52.6,49.4,30.26,SSE,157,3.0,4.0,89,0.00,,,0.00,380,Wunderground v.1.15,2013-09-29 13:24:00,
2013-09-29 09:28:00,53.3,50.1,30.26,South,183,3.0,4.0,89,0.00,,,0.00,388,Wunderground v.1.15,2013-09-29 13:28:00,
2013-09-29 09:30:00,53.5,50.0,30.26,South,175,3.0,3.0,88,0.00,,,0.00,397,Wunderground v.1.15,2013-09-29 13:30:00,
2013-09-29 09:32:00,53.6,50.1,30.26,SSW,198,2.0,3.0,88,0.00,,,0.00,403,Wunderground v.1.15,2013-09-29 13:32:00,
2013-09-29 09:33:00,53.7,49.9,30.26,SSW,209,2.0,3.0,87,0.00,,,0.00,404,Wunderground v.1.15,2013-09-29 13:33:00,
2013-09-29 09:35:00,53.9,50.1,30.26,SSE,165,2.0,3.0,87,0.00,,,0.00,410,Wunderground v.1.15,2013-09-29 13:35:00,
2013-09-29 09:37:00,54.2,50.4,30.26,SSE,165,2.0,3.0,87,0.00,,,0.00,355,Wunderground v.1.15,2013-09-29 13:37:00,
2013-09-29 09:40:00,54.6,50.5,30.26,SSE,165,1.0,2.0,86,0.00,,,0.00,413,Wunderground v.1.15,2013-09-29 13:40:00,
2013-09-29 09:41:00,54.6,50.5,30.26,SE,142,2.0,4.0,86,0.00,,,0.00,427,Wunderground v.1.15,2013-09-29 13:41:00,
2013-09-29 09:42:00,54.7,50.3,30.26,SE,142,2.0,4.0,85,0.00,,,0.00,429,Wunderground v.1.15,2013-09-29 13:42:00,
2013-09-29 09:47:00,55.2,50.8,30.25,SE,141,2.0,4.0,85,0.00,,,0.00,441,Wunderground v.1.15,2013-09-29 13:47:00,
2013-09-29 09:48:00,55.3,50.9,30.25,SE,144,2.0,4.0,85,0.00,,,0.00,445,Wunderground v.1.15,2013-09-29 13:48:00,
2013-09-29 09:50:00,55.5,51.1,30.25,SSE,167,2.0,2.0,85,0.00,,,0.00,448,Wunderground v.1.15,2013-09-29 13:50:00,
2013-09-29 09:52:00,55.8,51.0,30.25,South,169,2.0,3.0,84,0.00,,,0.00,455,Wunderground v.1.15,2013-09-29 13:52:00,
2013-09-29 09:56:00,56.2,51.4,30.26,SE,141,2.0,4.0,84,0.00,,,0.00,464,Wunderground v.1.15,2013-09-29 13:56:00,
2013-09-29 09:58:00,56.4,51.3,30.26,SE,126,2.0,4.0,83,0.00,,,0.00,471,Wunderground v.1.15,2013-09-29 13:58:00,
2013-09-29 09:59:00,56.4,51.3,30.26,SE,136,2.0,4.0,83,0.00,,,0.00,473,Wunderground v.1.15,2013-09-29 13:59:00,
2013-09-29 10:00:00,56.4,51.0,30.25,SE,136,2.0,2.0,82,0.00,,,0.00,475,Wunderground v.1.15,2013-09-29 14:00:00,
2013-09-29 10:01:00,56.5,51.4,30.26,SE,137,2.0,2.0,83,0.00,,,0.00,476,Wunderground v.1.15,2013-09-29 14:01:00,
2013-09-29 10:06:00,56.9,51.5,30.26,SE,129,2.0,4.0,82,0.00,,,0.00,489,Wunderground v.1.15,2013-09-29 14:06:00,
2013-09-29 10:07:00,57.0,51.6,30.26,SE,131,2.0,4.0,82,0.00,,,0.00,490,Wunderground v.1.15,2013-09-29 14:07:00,
2013-09-29 10:10:00,57.2,51.4,30.26,NE,42,2.0,2.0,81,0.00,,,0.00,496,Wunderground v.1.15,2013-09-29 14:10:00,
2013-09-29 10:11:00,57.3,51.5,30.26,East,92,2.0,2.0,81,0.00,,,0.00,501,Wunderground v.1.15,2013-09-29 14:11:00,
2013-09-29 10:12:00,57.4,51.6,30.26,SE,142,2.0,4.0,81,0.00,,,0.00,501,Wunderground v.1.15,2013-09-29 14:12:00,
2013-09-29 10:15:00,57.7,51.9,30.26,South,178,2.0,5.0,81,0.00,,,0.00,508,Wunderground v.1.15,2013-09-29 14:15:00,
2013-09-29 10:18:00,57.9,51.8,30.26,South,173,2.0,5.0,80,0.00,,,0.00,517,Wunderground v.1.15,2013-09-29 14:18:00,
2013-09-29 10:19:00,58.0,51.9,30.26,SSE,148,2.0,5.0,80,0.00,,,0.00,519,Wunderground v.1.15,2013-09-29 14:19:00,
2013-09-29 10:21:00,58.2,51.7,30.26,SE,142,2.0,2.0,79,0.00,,,0.00,520,Wunderground v.1.15,2013-09-29 14:21:00,
2013-09-29 10:24:00,58.6,52.1,30.26,SE,132,1.0,2.0,79,0.00,,,0.00,533,Wunderground v.1.15,2013-09-29 14:24:00,
2013-09-29 10:26:00,58.9,52.1,30.26,SE,137,1.0,4.0,78,0.00,,,0.00,531,Wunderground v.1.15,2013-09-29 14:26:00,
2013-09-29 10:30:00,59.3,52.4,30.26,SSE,153,2.0,2.0,78,0.00,,,0.00,543,Wunderground v.1.15,2013-09-29 14:30:00,
2013-09-29 10:32:00,59.5,52.3,30.26,South,190,2.0,5.0,77,0.00,,,0.00,550,Wunderground v.1.15,2013-09-29 14:32:00,
2013-09-29 10:34:00,59.6,52.4,30.26,SSE,158,2.0,5.0,77,0.00,,,0.00,550,Wunderground v.1.15,2013-09-29 14:34:00,
2013-09-29 10:37:00,59.8,52.2,30.25,SE,143,3.0,5.0,76,0.00,,,0.00,559,Wunderground v.1.15,2013-09-29 14:37:00,
2013-09-29 10:38:00,59.9,52.3,30.26,SSE,159,2.0,5.0,76,0.00,,,0.00,561,Wunderground v.1.15,2013-09-29 14:38:00,
2013-09-29 10:42:00,60.4,52.4,30.26,SSE,162,2.0,4.0,75,0.00,,,0.00,568,Wunderground v.1.15,2013-09-29 14:42:00,
2013-09-29 10:44:00,60.6,52.6,30.26,South,185,2.0,4.0,75,0.00,,,0.00,571,Wunderground v.1.15,2013-09-29 14:44:00,
2013-09-29 10:48:00,61.2,52.8,30.26,South,171,2.0,4.0,74,0.00,,,0.00,585,Wunderground v.1.15,2013-09-29 14:48:00,
2013-09-29 10:51:00,61.6,52.5,30.26,ESE,105,1.0,1.0,72,0.00,,,0.00,592,Wunderground v.1.15,2013-09-29 14:51:00,
2013-09-29 10:53:00,61.8,52.7,30.26,ESE,105,1.0,1.0,72,0.00,,,0.00,603,Wunderground v.1.15,2013-09-29 14:53:00,
2013-09-29 10:56:00,62.2,53.1,30.26,ESE,105,1.0,1.0,72,0.00,,,0.00,577,Wunderground v.1.15,2013-09-29 14:56:00,
2013-09-29 10:58:00,62.6,53.1,30.26,ESE,105,1.0,1.0,71,0.00,,,0.00,626,Wunderground v.1.15,2013-09-29 14:58:00,
2013-09-29 10:59:00,62.9,53.4,30.25,NE,54,0.0,2.0,71,0.00,,,0.00,587,Wunderground v.1.15,2013-09-29 14:59:00,
2013-09-29 11:02:00,63.2,52.5,30.25,SSE,155,1.0,2.0,68,0.00,,,0.00,668,Wunderground v.1.15,2013-09-29 15:02:00,
2013-09-29 11:05:00,63.4,53.0,30.25,SSE,156,1.0,2.0,69,0.00,,,0.00,100,Wunderground v.1.15,2013-09-29 15:05:00,
2013-09-29 11:08:00,63.4,52.7,30.25,SSE,153,1.0,2.0,68,0.00,,,0.00,111,Wunderground v.1.15,2013-09-29 15:08:00,
2013-09-29 11:10:00,63.2,52.5,30.25,South,184,1.0,1.0,68,0.00,,,0.00,111,Wunderground v.1.15,2013-09-29 15:10:00,
2013-09-29 11:12:00,63.1,52.4,30.25,SSE,161,2.0,2.0,68,0.00,,,0.00,111,Wunderground v.1.15,2013-09-29 15:12:00,
2013-09-29 11:13:00,63.1,52.4,30.25,SE,127,2.0,2.0,68,0.00,,,0.00,111,Wunderground v.1.15,2013-09-29 15:13:00,
2013-09-29 11:15:00,63.1,52.4,30.25,SSE,153,2.0,2.0,68,0.00,,,0.00,146,Wunderground v.1.15,2013-09-29 15:15:00,
2013-09-29 11:17:00,63.1,52.4,30.25,SSE,154,1.0,2.0,68,0.00,,,0.00,146,Wunderground v.1.15,2013-09-29 15:17:00,
2013-09-29 11:20:00,63.3,52.6,30.25,SE,140,1.0,1.0,68,0.00,,,0.00,144,Wunderground v.1.15,2013-09-29 15:20:00,
2013-09-29 11:23:00,63.4,52.7,30.25,SSW,205,1.0,1.0,68,0.00,,,0.00,186,Wunderground v.1.15,2013-09-29 15:23:00,
2013-09-29 11:24:00,63.5,52.3,30.24,SW,231,1.0,1.0,67,0.00,,,0.00,186,Wunderground v.1.15,2013-09-29 15:24:00,
2013-09-29 11:29:00,64.0,53.2,30.24,WNW,296,1.0,2.0,68,0.00,,,0.00,199,Wunderground v.1.15,2013-09-29 15:29:00,
2013-09-29 11:30:00,64.2,53.8,30.24,NNE,32,1.0,1.0,69,0.00,,,0.00,712,Wunderground v.1.15,2013-09-29 15:30:00,
2013-09-29 11:31:00,64.4,53.2,30.24,NNE,32,1.0,1.0,67,0.00,,,0.00,763,Wunderground v.1.15,2013-09-29 15:31:00,
2013-09-29 11:32:00,64.5,52.9,30.24,South,184,1.0,2.0,66,0.00,,,0.00,301,Wunderground v.1.15,2013-09-29 15:32:00,
2013-09-29 11:35:00,64.9,52.8,30.24,SSE,157,1.0,2.0,65,0.00,,,0.00,796,Wunderground v.1.15,2013-09-29 15:35:00,
2013-09-29 11:37:00,65.2,53.1,30.24,SE,138,1.0,4.0,65,0.00,,,0.00,770,Wunderground v.1.15,2013-09-29 15:37:00,
2013-09-29 11:38:00,65.4,52.9,30.24,South,191,1.0,4.0,64,0.00,,,0.00,770,Wunderground v.1.15,2013-09-29 15:38:00,
2013-09-29 11:39:00,65.6,53.1,30.24,South,169,2.0,4.0,64,0.00,,,0.00,195,Wunderground v.1.15,2013-09-29 15:39:00,
2013-09-29 11:42:00,65.8,52.9,30.24,South,187,2.0,5.0,63,0.00,,,0.00,258,Wunderground v.1.15,2013-09-29 15:42:00,
2013-09-29 11:43:00,65.9,52.9,30.24,SE,140,2.0,5.0,63,0.00,,,0.00,258,Wunderground v.1.15,2013-09-29 15:43:00,
2013-09-29 11:47:00,66.2,52.8,30.24,SSE,148,1.0,5.0,62,0.00,,,0.00,381,Wunderground v.1.15,2013-09-29 15:47:00,
2013-09-29 11:48:00,66.2,52.8,30.23,ESE,112,1.0,5.0,62,0.00,,,0.00,255,Wunderground v.1.15,2013-09-29 15:48:00,
2013-09-29 11:49:00,66.2,52.8,30.23,South,181,1.0,5.0,62,0.00,,,0.00,258,Wunderground v.1.15,2013-09-29 15:49:00,
2013-09-29 11:50:00,66.2,52.3,30.23,ESE,119,1.0,1.0,61,0.00,,,0.00,258,Wunderground v.1.15,2013-09-29 15:50:00,
2013-09-29 11:53:00,66.1,52.3,30.23,ESE,111,2.0,2.0,61,0.00,,,0.00,246,Wunderground v.1.15,2013-09-29 15:53:00,
2013-09-29 11:56:00,65.8,52.0,30.23,SE,137,2.0,5.0,61,0.00,,,0.00,248,Wunderground v.1.15,2013-09-29 15:56:00,
2013-09-29 11:57:00,65.7,51.9,30.23,East,96,2.0,5.0,61,0.00,,,0.00,248,Wunderground v.1.15,2013-09-29 15:57:00,
2013-09-29 12:00:00,65.7,52.3,30.23,East,96,2.0,2.0,62,0.00,,,0.00,865,Wunderground v.1.15,2013-09-29 16:00:00,
2013-09-29 12:02:00,65.8,52.4,30.23,SSE,153,2.0,2.0,62,0.00,,,0.00,865,Wunderground v.1.15,2013-09-29 16:02:00,
2013-09-29 12:03:00,65.9,52.5,30.23,SE,130,2.0,4.0,62,0.00,,,0.00,838,Wunderground v.1.15,2013-09-29 16:03:00,
2013-09-29 12:04:00,66.0,52.6,30.23,SE,130,2.0,4.0,62,0.00,,,0.00,816,Wunderground v.1.15,2013-09-29 16:04:00,
2013-09-29 12:10:00,66.5,52.2,30.23,WNW,292,1.0,1.0,60,0.00,,,0.00,181,Wunderground v.1.15,2013-09-29 16:10:00,
2013-09-29 12:11:00,66.6,52.3,30.22,WNW,292,1.0,1.0,60,0.00,,,0.00,181,Wunderground v.1.15,2013-09-29 16:11:00,
2013-09-29 12:12:00,66.7,52.8,30.22,WNW,292,1.0,2.0,61,0.00,,,0.00,830,Wunderground v.1.15,2013-09-29 16:12:00,
2013-09-29 12:17:00,67.3,52.5,30.22,SE,141,1.0,6.0,59,0.00,,,0.00,838,Wunderground v.1.15,2013-09-29 16:17:00,
2013-09-29 12:18:00,67.5,52.2,30.22,SSE,152,2.0,6.0,58,0.00,,,0.00,846,Wunderground v.1.15,2013-09-29 16:18:00,
2013-09-29 12:19:00,67.6,51.8,30.22,East,101,2.0,6.0,57,0.00,,,0.00,860,Wunderground v.1.15,2013-09-29 16:19:00,
2013-09-29 12:20:00,67.7,51.9,30.22,SE,142,2.0,2.0,57,0.00,,,0.00,860,Wunderground v.1.15,2013-09-29 16:20:00,
2013-09-29 12:24:00,68.2,52.4,30.22,NNW,327,3.0,3.0,57,0.00,,,0.00,875,Wunderground v.1.15,2013-09-29 16:24:00,
2013-09-29 12:25:00,68.4,52.6,30.22,NW,325,3.0,3.0,57,0.00,,,0.00,877,Wunderground v.1.15,2013-09-29 16:25:00,
2013-09-29 12:26:00,68.6,53.2,30.22,NE,37,3.0,3.0,58,0.00,,,0.00,870,Wunderground v.1.15,2013-09-29 16:26:00,
2013-09-29 12:31:00,68.6,51.8,30.21,WNW,291,3.0,3.0,55,0.00,,,0.00,192,Wunderground v.1.15,2013-09-29 16:31:00,
2013-09-29 12:32:00,68.4,51.6,30.22,WNW,291,3.0,3.0,55,0.00,,,0.00,186,Wunderground v.1.15,2013-09-29 16:32:00,
2013-09-29 12:35:00,68.1,51.3,30.22,ESE,120,4.0,7.0,55,0.00,,,0.00,260,Wunderground v.1.15,2013-09-29 16:35:00,
2013-09-29 12:37:00,68.0,51.2,30.22,NNW,333,4.0,7.0,55,0.00,,,0.00,278,Wunderground v.1.15,2013-09-29 16:37:00,
2013-09-29 12:40:00,67.9,52.1,30.21,WSW,256,3.0,3.0,57,0.00,,,0.00,239,Wunderground v.1.15,2013-09-29 16:40:00,
2013-09-29 12:42:00,67.8,52.0,30.21,WNW,294,3.0,3.0,57,0.00,,,0.00,236,Wunderground v.1.15,2013-09-29 16:42:00,
2013-09-29 12:44:00,67.7,52.4,30.21,NW,307,2.0,3.0,58,0.00,,,0.00,265,Wunderground v.1.15,2013-09-29 16:44:00,
2013-09-29 12:45:00,67.7,52.9,30.21,West,281,2.0,5.0,59,0.00,,,0.00,265,Wunderground v.1.15,2013-09-29 16:45:00,
2013-09-29 12:48:00,67.9,53.0,30.21,NW,309,2.0,5.0,59,0.00,,,0.00,958,Wunderground v.1.15,2013-09-29 16:48:00,
2013-09-29 12:50:00,68.2,52.9,30.21,NW,307,2.0,2.0,58,0.00,,,0.00,322,Wunderground v.1.15,2013-09-29 16:50:00,
2013-09-29 12:51:00,68.4,53.0,30.21,ESE,110,2.0,2.0,58,0.00,,,0.00,322,Wunderground v.1.15,2013-09-29 16:51:00,
2013-09-29 12:56:00,69.3,53.4,30.21,NW,307,2.0,5.0,57,0.00,,,0.00,828,Wunderground v.1.15,2013-09-29 16:56:00,
2013-09-29 12:58:00,69.5,52.6,30.21,East,81,3.0,5.0,55,0.00,,,0.00,202,Wunderground v.1.15,2013-09-29 16:58:00,
2013-09-29 13:00:00,69.4,52.5,30.21,ESE,117,3.0,3.0,55,0.00,,,0.00,181,Wunderground v.1.15,2013-09-29 17:00:00,
2013-09-29 13:02:00,69.2,52.3,30.21,East,92,3.0,4.0,55,0.00,,,0.00,202,Wunderground v.1.15,2013-09-29 17:02:00,
2013-09-29 13:04:00,69.1,52.7,30.21,SE,142,3.0,6.0,56,0.00,,,0.00,290,Wunderground v.1.15,2013-09-29 17:04:00,
2013-09-29 13:05:00,68.9,52.1,30.21,ESE,115,3.0,6.0,55,0.00,,,0.00,243,Wunderground v.1.15,2013-09-29 17:05:00,
2013-09-29 13:08:00,68.3,52.0,30.21,ESE,113,4.0,7.0,56,0.00,,,0.00,260,Wunderground v.1.15,2013-09-29 17:08:00,
2013-09-29 13:10:00,68.0,52.2,30.21,WNW,290,3.0,3.0,57,0.00,,,0.00,269,Wunderground v.1.15,2013-09-29 17:10:00,
2013-09-29 13:11:00,68.0,52.2,30.21,WNW,288,3.0,3.0,57,0.00,,,0.00,327,Wunderground v.1.15,2013-09-29 17:11:00,
2013-09-29 13:12:00,67.9,52.1,30.20,NNW,344,3.0,3.0,57,0.00,,,0.00,250,Wunderground v.1.15,2013-09-29 17:12:00,
2013-09-29 13:16:00,67.9,51.6,30.20,SE,126,3.0,4.0,56,0.00,,,0.00,236,Wunderground v.1.15,2013-09-29 17:16:00,
2013-09-29 13:17:00,67.9,51.6,30.20,NW,313,3.0,4.0,56,0.00,,,0.00,236,Wunderground v.1.15,2013-09-29 17:17:00,
2013-09-29 13:19:00,67.9,52.1,30.20,NNW,333,2.0,4.0,57,0.00,,,0.00,234,Wunderground v.1.15,2013-09-29 17:19:00,
2013-09-29 13:23:00,68.0,52.7,30.20,WNW,298,2.0,2.0,58,0.00,,,0.00,301,Wunderground v.1.15,2013-09-29 17:23:00,
2013-09-29 13:24:00,68.0,52.7,30.20,SW,236,2.0,2.0,58,0.00,,,0.00,301,Wunderground v.1.15,2013-09-29 17:24:00,
2013-09-29 13:26:00,68.3,52.5,30.20,WNW,288,2.0,2.0,57,0.00,,,0.00,782,Wunderground v.1.15,2013-09-29 17:26:00,
2013-09-29 13:30:00,68.5,52.2,30.20,WNW,292,1.0,2.0,56,0.00,,,0.00,207,Wunderground v.1.15,2013-09-29 17:30:00,
2013-09-29 13:31:00,68.5,52.2,30.19,North,351,1.0,2.0,56,0.00,,,0.00,202,Wunderground v.1.15,2013-09-29 17:31:00,
2013-09-29 13:32:00,68.5,52.2,30.19,North,11,1.0,2.0,56,0.00,,,0.00,199,Wunderground v.1.15,2013-09-29 17:32:00,
2013-09-29 13:33:00,68.5,52.2,30.19,East,98,1.0,2.0,56,0.00,,,0.00,193,Wunderground v.1.15,2013-09-29 17:33:00,
2013-09-29 13:37:00,68.3,52.0,30.19,South,184,2.0,2.0,56,0.00,,,0.00,181,Wunderground v.1.15,2013-09-29 17:37:00,
2013-09-29 13:38:00,68.3,52.0,30.19,SSE,163,2.0,2.0,56,0.00,,,0.00,185,Wunderground v.1.15,2013-09-29 17:38:00,
2013-09-29 13:41:00,68.2,51.4,30.19,WNW,296,2.0,2.0,55,0.00,,,0.00,207,Wunderground v.1.15,2013-09-29 17:41:00,
2013-09-29 13:43:00,68.1,51.8,30.19,SE,135,3.0,3.0,56,0.00,,,0.00,257,Wunderground v.1.15,2013-09-29 17:43:00,
2013-09-29 13:45:00,68.0,51.2,30.19,SE,124,3.0,5.0,55,0.00,,,0.00,355,Wunderground v.1.15,2013-09-29 17:45:00,
2013-09-29 13:46:00,67.9,51.1,30.19,SE,130,3.0,5.0,55,0.00,,,0.00,272,Wunderground v.1.15,2013-09-29 17:46:00,
2013-09-29 13:50:00,67.7,50.9,30.19,ENE,69,4.0,4.0,55,0.00,,,0.00,234,Wunderground v.1.15,2013-09-29 17:50:00,
2013-09-29 13:51:00,67.7,50.9,30.19,WNW,296,3.0,4.0,55,0.00,,,0.00,225,Wunderground v.1.15,2013-09-29 17:51:00,
2013-09-29 13:52:00,67.7,51.4,30.18,North,355,3.0,4.0,56,0.00,,,0.00,223,Wunderground v.1.15,2013-09-29 17:52:00,
2013-09-29 13:56:00,67.8,51.5,30.18,SE,132,2.0,4.0,56,0.00,,,0.00,209,Wunderground v.1.15,2013-09-29 17:56:00,
2013-09-29 13:57:00,67.8,51.5,30.18,ESE,123,2.0,4.0,56,0.00,,,0.00,209,Wunderground v.1.15,2013-09-29 17:57:00,
2013-09-29 13:58:00,67.9,52.1,30.18,North,5,2.0,4.0,57,0.00,,,0.00,207,Wunderground v.1.15,2013-09-29 17:58:00,
2013-09-29 14:00:00,67.9,52.1,30.18,SE,136,2.0,4.0,57,0.00,,,0.00,209,Wunderground v.1.15,2013-09-29 18:00:00,
2013-09-29 14:06:00,67.9,51.1,30.18,ESE,107,2.0,5.0,55,0.00,,,0.00,258,Wunderground v.1.15,2013-09-29 18:06:00,
2013-09-29 14:07:00,68.0,51.7,30.18,South,169,2.0,5.0,56,0.00,,,0.00,258,Wunderground v.1.15,2013-09-29 18:07:00,
2013-09-29 14:09:00,68.2,51.9,30.18,West,277,2.0,5.0,56,0.00,,,0.00,258,Wunderground v.1.15,2013-09-29 18:09:00,
2013-09-29 14:11:00,68.5,52.2,30.18,West,279,2.0,2.0,56,0.00,,,0.00,258,Wunderground v.1.15,2013-09-29 18:11:00,
2013-09-29 14:14:00,68.9,51.6,30.18,SSE,151,1.0,2.0,54,0.00,,,0.00,234,Wunderground v.1.15,2013-09-29 18:14:00,
2013-09-29 14:15:00,69.0,51.2,30.18,SE,126,1.0,3.0,53,0.00,,,0.00,234,Wunderground v.1.15,2013-09-29 18:15:00,
2013-09-29 14:18:00,69.2,51.3,30.17,SSE,153,1.0,4.0,53,0.00,,,0.00,828,Wunderground v.1.15,2013-09-29 18:18:00,
2013-09-29 14:20:00,69.2,51.8,30.17,SSW,194,2.0,2.0,54,0.00,,,0.00,828,Wunderground v.1.15,2013-09-29 18:20:00,
2013-09-29 14:22:00,69.4,52.0,30.17,NW,325,2.0,4.0,54,0.00,,,0.00,810,Wunderground v.1.15,2013-09-29 18:22:00,
2013-09-29 14:24:00,69.6,51.7,30.17,WNW,298,2.0,4.0,53,0.00,,,0.00,761,Wunderground v.1.15,2013-09-29 18:24:00,
2013-09-29 14:28:00,70.0,51.0,30.17,East,86,3.0,4.0,51,0.00,,,0.00,824,Wunderground v.1.15,2013-09-29 18:28:00,
2013-09-29 14:30:00,70.1,51.7,30.17,ESE,111,3.0,5.0,52,0.00,,,0.00,805,Wunderground v.1.15,2013-09-29 18:30:00,
2013-09-29 14:32:00,70.3,51.3,30.17,SE,135,3.0,5.0,51,0.00,,,0.00,802,Wunderground v.1.15,2013-09-29 18:32:00,
2013-09-29 14:33:00,70.4,50.9,30.17,ESE,121,3.0,6.0,50,0.00,,,0.00,802,Wunderground v.1.15,2013-09-29 18:33:00,
2013-09-29 14:36:00,70.1,50.6,30.17,ESE,123,3.0,6.0,50,0.00,,,0.00,169,Wunderground v.1.15,2013-09-29 18:36:00,
2013-09-29 14:38:00,69.9,50.9,30.17,West,279,4.0,6.0,51,0.00,,,0.00,137,Wunderground v.1.15,2013-09-29 18:38:00,
2013-09-29 14:39:00,69.8,50.9,30.17,West,265,4.0,6.0,51,0.00,,,0.00,116,Wunderground v.1.15,2013-09-29 18:39:00,
2013-09-29 14:44:00,69.2,50.8,30.16,ESE,115,3.0,7.0,52,0.00,,,0.00,121,Wunderground v.1.15,2013-09-29 18:44:00,
2013-09-29 14:45:00,69.2,50.8,30.16,ESE,115,3.0,7.0,52,0.00,,,0.00,128,Wunderground v.1.15,2013-09-29 18:45:00,
2013-09-29 14:46:00,69.2,50.3,30.16,SE,126,3.0,7.0,51,0.00,,,0.00,132,Wunderground v.1.15,2013-09-29 18:46:00,
2013-09-29 14:51:00,68.8,50.5,30.16,SE,125,3.0,4.0,52,0.00,,,0.00,100,Wunderground v.1.15,2013-09-29 18:51:00,
2013-09-29 14:52:00,68.8,50.5,30.16,SE,132,2.0,4.0,52,0.00,,,0.00,109,Wunderground v.1.15,2013-09-29 18:52:00,
2013-09-29 14:55:00,68.8,50.5,30.16,SE,132,3.0,5.0,52,0.00,,,0.00,102,Wunderground v.1.15,2013-09-29 18:55:00,
2013-09-29 14:56:00,68.8,49.9,30.16,SE,137,3.0,5.0,51,0.00,,,0.00,98,Wunderground v.1.15,2013-09-29 18:56:00,
2013-09-29 14:59:00,68.7,50.4,30.16,ESE,115,4.0,6.0,52,0.00,,,0.00,111,Wunderground v.1.15,2013-09-29 18:59:00,
2013-09-29 15:00:00,68.6,50.3,30.16,SSE,161,4.0,5.0,52,0.00,,,0.00,118,Wunderground v.1.15,2013-09-29 19:00:00,
2013-09-29 15:03:00,68.5,50.2,30.16,South,178,4.0,5.0,52,0.00,,,0.00,146,Wunderground v.1.15,2013-09-29 19:03:00,
2013-09-29 15:06:00,68.5,50.2,30.16,SE,125,4.0,6.0,52,0.00,,,0.00,176,Wunderground v.1.15,2013-09-29 19:06:00,
2013-09-29 15:09:00,68.7,50.9,30.15,WSW,257,3.0,6.0,53,0.00,,,0.00,218,Wunderground v.1.15,2013-09-29 19:09:00,
2013-09-29 15:10:00,68.8,51.0,30.15,SE,142,3.0,4.0,53,0.00,,,0.00,206,Wunderground v.1.15,2013-09-29 19:10:00,
2013-09-29 15:13:00,69.2,50.8,30.15,SE,142,3.0,4.0,52,0.00,,,0.00,153,Wunderground v.1.15,2013-09-29 19:13:00,
2013-09-29 15:15:00,69.5,50.0,30.15,SE,131,2.0,5.0,50,0.00,,,0.00,105,Wunderground v.1.15,2013-09-29 19:15:00,
2013-09-29 15:16:00,69.7,50.2,30.15,ESE,109,2.0,5.0,50,0.00,,,0.00,98,Wunderground v.1.15,2013-09-29 19:16:00,
2013-09-29 15:20:00,70.1,49.5,30.15,ESE,113,4.0,5.0,48,0.00,,,0.00,88,Wunderground v.1.15,2013-09-29 19:20:00,
2013-09-29 15:22:00,70.3,49.7,30.15,SE,130,4.0,10.0,48,0.00,,,0.00,90,Wunderground v.1.15,2013-09-29 19:22:00,
2013-09-29 15:24:00,70.3,50.2,30.15,SSE,147,5.0,10.0,49,0.00,,,0.00,90,Wunderground v.1.15,2013-09-29 19:24:00,
2013-09-29 15:26:00,70.4,50.3,30.15,ESE,107,5.0,10.0,49,0.00,,,0.00,91,Wunderground v.1.15,2013-09-29 19:26:00,
2013-09-29 15:29:00,70.5,49.9,30.15,ESE,117,5.0,10.0,48,0.00,,,0.00,98,Wunderground v.1.15,2013-09-29 19:29:00,
2013-09-29 15:30:00,70.5,49.9,30.15,SSE,147,5.0,5.0,48,0.00,,,0.00,102,Wunderground v.1.15,2013-09-29 19:30:00,
2013-09-29 15:32:00,70.6,50.0,30.14,SE,132,5.0,7.0,48,0.00,,,0.00,114,Wunderground v.1.15,2013-09-29 19:32:00,
2013-09-29 15:35:00,70.7,50.0,30.14,SE,126,5.0,7.0,48,0.00,,,0.00,142,Wunderground v.1.15,2013-09-29 19:35:00,
2013-09-29 15:36:00,70.6,50.0,30.14,ESE,114,5.0,7.0,48,0.00,,,0.00,155,Wunderground v.1.15,2013-09-29 19:36:00,
2013-09-29 15:39:00,70.6,50.0,30.14,ESE,107,5.0,8.0,48,0.00,,,0.00,181,Wunderground v.1.15,2013-09-29 19:39:00,
2013-09-29 15:41:00,70.6,50.0,30.14,SSE,153,5.0,6.0,48,0.00,,,0.00,181,Wunderground v.1.15,2013-09-29 19:41:00,
2013-09-29 15:42:00,70.6,50.5,30.14,SSE,155,5.0,6.0,49,0.00,,,0.00,186,Wunderground v.1.15,2013-09-29 19:42:00,
2013-09-29 15:45:00,70.5,49.9,30.14,East,100,5.0,8.0,48,0.00,,,0.00,202,Wunderground v.1.15,2013-09-29 19:45:00,
2013-09-29 15:46:00,70.4,50.3,30.14,South,186,4.0,8.0,49,0.00,,,0.00,204,Wunderground v.1.15,2013-09-29 19:46:00,
2013-09-29 15:48:00,70.4,49.8,30.14,SE,126,4.0,8.0,48,0.00,,,0.00,220,Wunderground v.1.15,2013-09-29 19:48:00,
2013-09-29 15:50:00,70.4,49.8,30.14,ESE,121,4.0,4.0,48,0.00,,,0.00,227,Wunderground v.1.15,2013-09-29 19:50:00,
2013-09-29 15:53:00,70.3,49.7,30.14,SSE,167,4.0,5.0,48,0.00,,,0.00,232,Wunderground v.1.15,2013-09-29 19:53:00,
2013-09-29 15:55:00,70.2,49.6,30.14,ESE,121,4.0,5.0,48,0.00,,,0.00,214,Wunderground v.1.15,2013-09-29 19:55:00,
2013-09-29 15:56:00,70.3,50.2,30.14,SSE,150,4.0,5.0,49,0.00,,,0.00,190,Wunderground v.1.15,2013-09-29 19:56:00,
2013-09-29 15:59:00,70.4,49.8,30.14,South,174,4.0,6.0,48,0.00,,,0.00,171,Wunderground v.1.15,2013-09-29 19:59:00,
2013-09-29 16:03:00,70.2,49.6,30.14,SSE,153,4.0,5.0,48,0.00,,,0.00,169,Wunderground v.1.15,2013-09-29 20:03:00,
2013-09-29 16:05:00,70.0,49.4,30.14,SSE,148,4.0,5.0,48,0.00,,,0.00,160,Wunderground v.1.15,2013-09-29 20:05:00,
2013-09-29 16:07:00,70.0,50.0,30.14,SSE,167,4.0,5.0,49,0.00,,,0.00,148,Wunderground v.1.15,2013-09-29 20:07:00,
2013-09-29 16:10:00,69.9,49.9,30.14,SE,141,4.0,4.0,49,0.00,,,0.00,132,Wunderground v.1.15,2013-09-29 20:10:00,
2013-09-29 16:12:00,69.9,49.9,30.14,ESE,102,3.0,4.0,49,0.00,,,0.00,127,Wunderground v.1.15,2013-09-29 20:12:00,
2013-09-29 16:13:00,69.9,49.9,30.14,SSE,147,3.0,4.0,49,0.00,,,0.00,125,Wunderground v.1.15,2013-09-29 20:13:00,
2013-09-29 16:14:00,69.9,49.9,30.14,South,175,3.0,4.0,49,0.00,,,0.00,121,Wunderground v.1.15,2013-09-29 20:14:00,
2013-09-29 16:18:00,69.8,49.8,30.14,SE,135,3.0,7.0,49,0.00,,,0.00,125,Wunderground v.1.15,2013-09-29 20:18:00,
2013-09-29 16:20:00,69.8,49.8,30.14,SSE,151,3.0,3.0,49,0.00,,,0.00,141,Wunderground v.1.15,2013-09-29 20:20:00,
2013-09-29 16:21:00,69.8,50.3,30.14,SSE,148,3.0,4.0,50,0.00,,,0.00,236,Wunderground v.1.15,2013-09-29 20:21:00,
2013-09-29 16:24:00,69.7,49.1,30.14,SE,146,4.0,5.0,48,0.00,,,0.00,135,Wunderground v.1.15,2013-09-29 20:24:00,
2013-09-29 16:26:00,69.7,49.7,30.13,South,190,4.0,7.0,49,0.00,,,0.00,137,Wunderground v.1.15,2013-09-29 20:26:00,
2013-09-29 16:27:00,69.6,49.6,30.13,SSW,197,4.0,7.0,49,0.00,,,0.00,137,Wunderground v.1.15,2013-09-29 20:27:00,
2013-09-29 16:30:00,69.6,49.6,30.13,SE,133,4.0,4.0,49,0.00,,,0.00,134,Wunderground v.1.15,2013-09-29 20:30:00,
2013-09-29 16:31:00,69.7,49.7,30.13,SE,139,5.0,6.0,49,0.00,,,0.00,113,Wunderground v.1.15,2013-09-29 20:31:00,
2013-09-29 16:33:00,69.7,49.1,30.13,South,173,5.0,6.0,48,0.00,,,0.00,104,Wunderground v.1.15,2013-09-29 20:33:00,
2013-09-29 16:37:00,69.5,48.4,30.13,South,188,5.0,6.0,47,0.00,,,0.00,91,Wunderground v.1.15,2013-09-29 20:37:00,
2013-09-29 16:38:00,69.5,48.4,30.13,SSE,168,5.0,6.0,47,0.00,,,0.00,90,Wunderground v.1.15,2013-09-29 20:38:00,
2013-09-29 16:39:00,69.4,48.9,30.13,South,188,5.0,6.0,48,0.00,,,0.00,90,Wunderground v.1.15,2013-09-29 20:39:00,
2013-09-29 16:40:00,69.4,48.9,30.13,SE,128,4.0,5.0,48,0.00,,,0.00,90,Wunderground v.1.15,2013-09-29 20:40:00,
2013-09-29 16:44:00,69.3,48.2,30.13,SE,130,4.0,5.0,47,0.00,,,0.00,100,Wunderground v.1.15,2013-09-29 20:44:00,
2013-09-29 16:45:00,69.3,48.8,30.13,SSE,168,4.0,5.0,48,0.00,,,0.00,105,Wunderground v.1.15,2013-09-29 20:45:00,
2013-09-29 16:47:00,69.3,48.8,30.13,SSE,150,4.0,5.0,48,0.00,,,0.00,109,Wunderground v.1.15,2013-09-29 20:47:00,
2013-09-29 16:51:00,69.5,49.5,30.13,SE,142,3.0,3.0,49,0.00,,,0.00,113,Wunderground v.1.15,2013-09-29 20:51:00,
2013-09-29 16:57:00,69.9,48.7,30.14,SSE,163,4.0,5.0,47,0.00,,,0.00,111,Wunderground v.1.15,2013-09-29 20:57:00,
2013-09-29 16:58:00,69.9,48.7,30.14,SSE,159,4.0,5.0,47,0.00,,,0.00,111,Wunderground v.1.15,2013-09-29 20:58:00,
2013-09-29 17:01:00,69.8,49.2,30.14,SE,137,3.0,4.0,48,0.00,,,0.00,104,Wunderground v.1.15,2013-09-29 21:01:00,
2013-09-29 17:02:00,69.8,48.7,30.14,SSE,168,3.0,6.0,47,0.00,,,0.00,102,Wunderground v.1.15,2013-09-29 21:02:00,
2013-09-29 17:04:00,69.7,49.1,30.14,SE,128,3.0,6.0,48,0.00,,,0.00,95,Wunderground v.1.15,2013-09-29 21:04:00,
2013-09-29 17:07:00,69.4,48.9,30.14,SE,132,4.0,6.0,48,0.00,,,0.00,84,Wunderground v.1.15,2013-09-29 21:07:00,
2013-09-29 17:08:00,69.3,48.8,30.14,SSE,150,4.0,6.0,48,0.00,,,0.00,79,Wunderground v.1.15,2013-09-29 21:08:00,
2013-09-29 17:13:00,69.0,49.0,30.14,SE,132,4.0,4.0,49,0.00,,,0.00,60,Wunderground v.1.15,2013-09-29 21:13:00,
2013-09-29 17:15:00,69.0,49.0,30.14,SE,131,3.0,5.0,49,0.00,,,0.00,60,Wunderground v.1.15,2013-09-29 21:15:00,
2013-09-29 17:19:00,68.9,48.9,30.14,ESE,119,3.0,5.0,49,0.00,,,0.00,83,Wunderground v.1.15,2013-09-29 21:19:00,
2013-09-29 17:20:00,68.9,48.9,30.14,ESE,110,3.0,3.0,49,0.00,,,0.00,88,Wunderground v.1.15,2013-09-29 21:20:00,
2013-09-29 17:21:00,69.0,49.0,30.13,SSE,163,3.0,3.0,49,0.00,,,0.00,90,Wunderground v.1.15,2013-09-29 21:21:00,
2013-09-29 17:24:00,69.1,49.1,30.13,SE,127,3.0,4.0,49,0.00,,,0.00,98,Wunderground v.1.15,2013-09-29 21:24:00,
2013-09-29 17:27:00,69.4,48.9,30.13,ESE,105,2.0,4.0,48,0.00,,,0.00,98,Wunderground v.1.15,2013-09-29 21:27:00,
2013-09-29 17:29:00,69.5,48.9,30.13,SE,130,2.0,4.0,48,0.00,,,0.00,91,Wunderground v.1.15,2013-09-29 21:29:00,
2013-09-29 17:33:00,69.6,48.5,30.13,SE,140,3.0,8.0,47,0.00,,,0.00,95,Wunderground v.1.15,2013-09-29 21:33:00,
2013-09-29 17:35:00,69.6,49.0,30.13,ESE,104,3.0,8.0,48,0.00,,,0.00,97,Wunderground v.1.15,2013-09-29 21:35:00,
2013-09-29 17:38:00,69.6,48.5,30.13,ESE,105,5.0,8.0,47,0.00,,,0.00,91,Wunderground v.1.15,2013-09-29 21:38:00,
2013-09-29 17:39:00,69.6,48.5,30.13,SE,128,5.0,8.0,47,0.00,,,0.00,91,Wunderground v.1.15,2013-09-29 21:39:00,
2013-09-29 17:41:00,69.5,48.4,30.13,SE,140,6.0,6.0,47,0.00,,,0.00,90,Wunderground v.1.15,2013-09-29 21:41:00,
2013-09-29 17:44:00,69.5,47.8,30.13,SE,137,6.0,11.0,46,0.00,,,0.00,86,Wunderground v.1.15,2013-09-29 21:44:00,
2013-09-29 17:49:00,69.3,48.2,30.13,ESE,107,6.0,11.0,47,0.00,,,0.00,70,Wunderground v.1.15,2013-09-29 21:49:00,
2013-09-29 17:50:00,69.3,48.2,30.13,ESE,117,6.0,6.0,47,0.00,,,0.00,67,Wunderground v.1.15,2013-09-29 21:50:00,
2013-09-29 17:54:00,69.2,48.1,30.14,ESE,119,6.0,6.0,47,0.00,,,0.00,53,Wunderground v.1.15,2013-09-29 21:54:00,
2013-09-29 17:57:00,69.0,48.5,30.14,SSE,148,6.0,7.0,48,0.00,,,0.00,44,Wunderground v.1.15,2013-09-29 21:57:00,
2013-09-29 17:59:00,68.9,48.4,30.14,SE,128,6.0,9.0,48,0.00,,,0.00,40,Wunderground v.1.15,2013-09-29 21:59:00,
2013-09-29 18:03:00,68.8,48.3,30.14,ESE,107,6.0,9.0,48,0.00,,,0.00,25,Wunderground v.1.15,2013-09-29 22:03:00,
2013-09-29 18:05:00,68.7,48.2,30.14,SE,134,6.0,9.0,48,0.00,,,0.00,16,Wunderground v.1.15,2013-09-29 22:05:00,
2013-09-29 18:07:00,68.7,48.2,30.14,SE,128,6.0,9.0,48,0.00,,,0.00,14,Wunderground v.1.15,2013-09-29 22:07:00,
2013-09-29 18:09:00,68.7,48.2,30.14,SE,132,6.0,9.0,48,0.00,,,0.00,12,Wunderground v.1.15,2013-09-29 22:09:00,
2013-09-29 18:12:00,68.7,48.8,30.14,SE,132,5.0,6.0,49,0.00,,,0.00,12,Wunderground v.1.15,2013-09-29 22:12:00,
2013-09-29 18:14:00,68.6,48.7,30.14,SE,141,5.0,6.0,49,0.00,,,0.00,14,Wunderground v.1.15,2013-09-29 22:14:00,
2013-09-29 18:15:00,68.6,48.7,30.14,SE,138,4.0,6.0,49,0.00,,,0.00,14,Wunderground v.1.15,2013-09-29 22:15:00,
2013-09-29 18:20:00,68.5,48.6,30.14,SE,128,3.0,3.0,49,0.00,,,0.00,11,Wunderground v.1.15,2013-09-29 22:20:00,
2013-09-29 18:22:00,68.5,49.1,30.14,SSE,153,3.0,3.0,50,0.00,,,0.00,11,Wunderground v.1.15,2013-09-29 22:22:00,
2013-09-29 18:23:00,68.4,49.0,30.14,SSE,153,2.0,3.0,50,0.00,,,0.00,11,Wunderground v.1.15,2013-09-29 22:23:00,
2013-09-29 18:27:00,68.4,49.6,30.14,SE,131,2.0,3.0,51,0.00,,,0.00,14,Wunderground v.1.15,2013-09-29 22:27:00,
2013-09-29 18:28:00,68.3,48.9,30.14,ESE,115,2.0,5.0,50,0.00,,,0.00,18,Wunderground v.1.15,2013-09-29 22:28:00,
2013-09-29 18:29:00,68.3,48.9,30.14,SE,140,2.0,5.0,50,0.00,,,0.00,18,Wunderground v.1.15,2013-09-29 22:29:00,
2013-09-29 18:32:00,68.3,49.5,30.14,SE,130,2.0,3.0,51,0.00,,,0.00,11,Wunderground v.1.15,2013-09-29 22:32:00,
2013-09-29 18:34:00,68.2,49.4,30.14,SE,124,3.0,4.0,51,0.00,,,0.00,12,Wunderground v.1.15,2013-09-29 22:34:00,
2013-09-29 18:36:00,68.2,49.4,30.14,ESE,123,3.0,4.0,51,0.00,,,0.00,12,Wunderground v.1.15,2013-09-29 22:36:00,
2013-09-29 18:39:00,68.1,49.8,30.14,SE,142,3.0,4.0,52,0.00,,,0.00,11,Wunderground v.1.15,2013-09-29 22:39:00,
2013-09-29 18:40:00,68.1,49.8,30.14,ESE,120,3.0,3.0,52,0.00,,,0.00,11,Wunderground v.1.15,2013-09-29 22:40:00,
2013-09-29 18:41:00,68.1,49.8,30.14,SE,133,3.0,3.0,52,0.00,,,0.00,11,Wunderground v.1.15,2013-09-29 22:41:00,
2013-09-29 18:45:00,67.9,49.6,30.14,SSE,152,2.0,6.0,52,0.00,,,0.00,9,Wunderground v.1.15,2013-09-29 22:45:00,
2013-09-29 18:46:00,67.9,49.6,30.14,SSE,153,2.0,6.0,52,0.00,,,0.00,7,Wunderground v.1.15,2013-09-29 22:46:00,
2013-09-29 18:47:00,67.9,49.6,30.14,SE,137,2.0,6.0,52,0.00,,,0.00,5,Wunderground v.1.15,2013-09-29 22:47:00,
2013-09-29 18:50:00,67.7,49.4,30.14,SE,126,3.0,3.0,52,0.00,,,0.00,0,Wunderground v.1.15,2013-09-29 22:50:00,
2013-09-29 18:52:00,67.7,49.4,30.14,SE,133,3.0,4.0,52,0.00,,,0.00,0,Wunderground v.1.15,2013-09-29 22:52:00,
2013-09-29 18:55:00,67.6,49.9,30.14,SE,137,3.0,4.0,53,0.00,,,0.00,0,Wunderground v.1.15,2013-09-29 22:55:00,
2013-09-29 18:57:00,67.4,49.7,30.14,ESE,113,3.0,5.0,53,0.00,,,0.00,0,Wunderground v.1.15,2013-09-29 22:57:00,
2013-09-29 18:58:00,67.4,49.7,30.14,SE,143,3.0,5.0,53,0.00,,,0.00,0,Wunderground v.1.15,2013-09-29 22:58:00,
2013-09-29 18:59:00,67.4,49.7,30.14,SE,134,3.0,5.0,53,0.00,,,0.00,0,Wunderground v.1.15,2013-09-29 22:59:00,
2013-09-29 19:01:00,67.2,49.5,30.14,SE,139,3.0,3.0,53,0.00,,,0.00,0,Wunderground v.1.15,2013-09-29 23:01:00,
2013-09-29 19:04:00,67.1,49.9,30.14,ESE,119,2.0,3.0,54,0.00,,,0.00,0,Wunderground v.1.15,2013-09-29 23:04:00,
2013-09-29 19:06:00,67.1,49.9,30.14,ESE,121,2.0,3.0,54,0.00,,,0.00,0,Wunderground v.1.15,2013-09-29 23:06:00,
2013-09-29 19:07:00,67.0,49.8,30.14,ESE,121,2.0,3.0,54,0.00,,,0.00,0,Wunderground v.1.15,2013-09-29 23:07:00,
2013-09-29 19:11:00,66.9,50.2,30.14,ESE,121,1.0,1.0,55,0.00,,,0.00,0,Wunderground v.1.15,2013-09-29 23:11:00,
2013-09-29 19:12:00,66.9,50.2,30.14,ESE,121,1.0,1.0,55,0.00,,,0.00,0,Wunderground v.1.15,2013-09-29 23:12:00,
2013-09-29 19:14:00,66.8,50.1,30.14,ESE,121,0.0,1.0,55,0.00,,,0.00,0,Wunderground v.1.15,2013-09-29 23:14:00,
2013-09-29 19:18:00,66.6,49.9,30.14,ESE,121,0.0,1.0,55,0.00,,,0.00,0,Wunderground v.1.15,2013-09-29 23:18:00,
2013-09-29 19:20:00,66.5,50.3,30.14,ESE,121,0.0,0.0,56,0.00,,,0.00,0,Wunderground v.1.15,2013-09-29 23:20:00,
2013-09-29 19:21:00,66.4,50.2,30.14,ESE,121,0.0,1.0,56,0.00,,,0.00,0,Wunderground v.1.15,2013-09-29 23:21:00,
2013-09-29 19:25:00,66.2,50.0,30.14,ESE,119,1.0,1.0,56,0.00,,,0.00,0,Wunderground v.1.15,2013-09-29 23:25:00,
2013-09-29 19:26:00,66.2,50.0,30.14,ESE,119,1.0,1.0,56,0.00,,,0.00,0,Wunderground v.1.15,2013-09-29 23:26:00,
2013-09-29 19:28:00,66.2,50.0,30.14,ESE,119,1.0,1.0,56,0.00,,,0.00,0,Wunderground v.1.15,2013-09-29 23:28:00,
2013-09-29 19:31:00,66.1,49.9,30.14,SE,134,1.0,1.0,56,0.00,,,0.00,0,Wunderground v.1.15,2013-09-29 23:31:00,
2013-09-29 19:33:00,66.0,50.3,30.14,SE,134,1.0,1.0,57,0.00,,,0.00,0,Wunderground v.1.15,2013-09-29 23:33:00,
2013-09-29 19:34:00,66.0,50.3,30.14,SE,134,1.0,1.0,57,0.00,,,0.00,0,Wunderground v.1.15,2013-09-29 23:34:00,
2013-09-29 19:35:00,66.0,50.3,30.14,SE,134,1.0,1.0,57,0.00,,,0.00,0,Wunderground v.1.15,2013-09-29 23:35:00,
2013-09-29 19:37:00,65.9,50.2,30.14,SE,134,1.0,1.0,57,0.00,,,0.00,0,Wunderground v.1.15,2013-09-29 23:37:00,
2013-09-29 19:40:00,65.7,50.5,30.14,West,259,0.0,0.0,58,0.00,,,0.00,0,Wunderground v.1.15,2013-09-29 23:40:00,
2013-09-29 19:42:00,65.5,50.3,30.14,West,259,0.0,0.0,58,0.00,,,0.00,0,Wunderground v.1.15,2013-09-29 23:42:00,
2013-09-29 19:43:00,65.5,50.3,30.14,West,259,0.0,0.0,58,0.00,,,0.00,0,Wunderground v.1.15,2013-09-29 23:43:00,
2013-09-29 19:44:00,65.4,50.7,30.14,West,259,0.0,0.0,59,0.00,,,0.00,0,Wunderground v.1.15,2013-09-29 23:44:00,
2013-09-29 19:47:00,65.2,50.5,30.14,West,259,0.0,0.0,59,0.00,,,0.00,0,Wunderground v.1.15,2013-09-29 23:47:00,
2013-09-29 19:49:00,65.0,50.8,30.14,West,259,0.0,0.0,60,0.00,,,0.00,0,Wunderground v.1.15,2013-09-29 23:49:00,
2013-09-29 19:51:00,64.7,50.5,30.14,West,259,0.0,0.0,60,0.00,,,0.00,0,Wunderground v.1.15,2013-09-29 23:51:00,
2013-09-29 19:52:00,64.6,50.4,30.14,West,259,0.0,0.0,60,0.00,,,0.00,0,Wunderground v.1.15,2013-09-29 23:52:00,
2013-09-29 19:58:00,64.0,50.3,30.15,West,259,0.0,0.0,61,0.00,,,0.00,0,Wunderground v.1.15,2013-09-29 23:58:00,
2013-09-29 19:59:00,63.9,50.2,30.15,West,259,0.0,0.0,61,0.00,,,0.00,0,Wunderground v.1.15,2013-09-29 23:59:00,
2013-09-29 20:01:00,63.8,50.5,30.14,West,259,0.0,0.0,62,0.00,,,0.00,0,Wunderground v.1.15,2013-09-30 00:01:00,
2013-09-29 20:05:00,63.6,50.8,30.15,West,259,0.0,0.0,63,0.00,,,0.00,0,Wunderground v.1.15,2013-09-30 00:05:00,
2013-09-29 20:06:00,63.6,50.3,30.15,West,259,0.0,0.0,62,0.00,,,0.00,0,Wunderground v.1.15,2013-09-30 00:06:00,
2013-09-29 20:07:00,63.6,50.3,30.14,West,259,0.0,0.0,62,0.00,,,0.00,0,Wunderground v.1.15,2013-09-30 00:07:00,
2013-09-29 20:08:00,63.6,50.8,30.14,West,259,0.0,0.0,63,0.00,,,0.00,0,Wunderground v.1.15,2013-09-30 00:08:00,
2013-09-29 20:13:00,63.4,50.6,30.14,West,259,0.0,0.0,63,0.00,,,0.00,0,Wunderground v.1.15,2013-09-30 00:13:00,
2013-09-29 20:14:00,63.4,50.6,30.14,West,259,0.0,0.0,63,0.00,,,0.00,0,Wunderground v.1.15,2013-09-30 00:14:00,
2013-09-29 20:16:00,63.3,50.5,30.14,West,259,0.0,0.0,63,0.00,,,0.00,0,Wunderground v.1.15,2013-09-30 00:16:00,
2013-09-29 20:19:00,63.3,50.5,30.14,West,259,0.0,0.0,63,0.00,,,0.00,0,Wunderground v.1.15,2013-09-30 00:19:00,
2013-09-29 20:20:00,63.2,50.4,30.15,West,259,0.0,0.0,63,0.00,,,0.00,0,Wunderground v.1.15,2013-09-30 00:20:00,
2013-09-29 20:22:00,63.2,50.4,30.14,West,259,0.0,0.0,63,0.00,,,0.00,0,Wunderground v.1.15,2013-09-30 00:22:00,
2013-09-29 20:24:00,63.2,50.8,30.15,West,259,0.0,0.0,64,0.00,,,0.00,0,Wunderground v.1.15,2013-09-30 00:24:00,
2013-09-29 20:25:00,63.2,50.8,30.15,West,259,0.0,0.0,64,0.00,,,0.00,0,Wunderground v.1.15,2013-09-30 00:25:00,
2013-09-29 20:27:00,63.2,50.4,30.15,West,259,0.0,0.0,63,0.00,,,0.00,0,Wunderground v.1.15,2013-09-30 00:27:00,
2013-09-29 20:30:00,63.2,50.8,30.15,West,259,0.0,0.0,64,0.00,,,0.00,0,Wunderground v.1.15,2013-09-30 00:30:00,
2013-09-29 20:32:00,63.1,50.7,30.15,West,259,0.0,0.0,64,0.00,,,0.00,0,Wunderground v.1.15,2013-09-30 00:32:00,
2013-09-29 20:35:00,63.0,50.6,30.15,West,259,0.0,0.0,64,0.00,,,0.00,0,Wunderground v.1.15,2013-09-30 00:35:00,
2013-09-29 20:37:00,62.9,51.0,30.15,West,259,0.0,0.0,65,0.00,,,0.00,0,Wunderground v.1.15,2013-09-30 00:37:00,
2013-09-29 20:39:00,62.9,51.0,30.15,West,259,0.0,0.0,65,0.00,,,0.00,0,Wunderground v.1.15,2013-09-30 00:39:00,
2013-09-29 20:43:00,62.8,51.3,30.15,West,259,0.0,0.0,66,0.00,,,0.00,0,Wunderground v.1.15,2013-09-30 00:43:00,
2013-09-29 20:44:00,62.7,51.2,30.15,West,259,0.0,0.0,66,0.00,,,0.00,0,Wunderground v.1.15,2013-09-30 00:44:00,
2013-09-29 20:48:00,62.7,51.2,30.15,West,259,0.0,0.0,66,0.00,,,0.00,0,Wunderground v.1.15,2013-09-30 00:48:00,
2013-09-29 20:49:00,62.7,51.2,30.15,West,259,0.0,0.0,66,0.00,,,0.00,0,Wunderground v.1.15,2013-09-30 00:49:00,
2013-09-29 20:50:00,62.7,51.2,30.15,West,259,0.0,0.0,66,0.00,,,0.00,0,Wunderground v.1.15,2013-09-30 00:50:00,
2013-09-29 20:53:00,62.6,51.1,30.15,West,259,0.0,0.0,66,0.00,,,0.00,0,Wunderground v.1.15,2013-09-30 00:53:00,
2013-09-29 20:56:00,62.4,51.3,30.15,West,259,0.0,0.0,67,0.00,,,0.00,0,Wunderground v.1.15,2013-09-30 00:56:00,
2013-09-29 20:57:00,62.3,51.2,30.15,West,259,0.0,0.0,67,0.00,,,0.00,0,Wunderground v.1.15,2013-09-30 00:57:00,
2013-09-29 20:59:00,62.2,51.1,30.15,West,259,0.0,0.0,67,0.00,,,0.00,0,Wunderground v.1.15,2013-09-30 00:59:00,
2013-09-29 21:03:00,62.2,51.1,30.15,SW,223,0.0,2.0,67,0.00,,,0.00,0,Wunderground v.1.15,2013-09-30 01:03:00,
2013-09-29 21:04:00,62.2,51.1,30.15,SW,223,0.0,2.0,67,0.00,,,0.00,0,Wunderground v.1.15,2013-09-30 01:04:00,
2013-09-29 21:05:00,62.2,51.5,30.15,SSW,205,0.0,4.0,68,0.00,,,0.00,0,Wunderground v.1.15,2013-09-30 01:05:00,
2013-09-29 21:09:00,62.5,51.8,30.15,SW,219,1.0,4.0,68,0.00,,,0.00,0,Wunderground v.1.15,2013-09-30 01:09:00,
2013-09-29 21:11:00,62.5,51.8,30.15,SW,233,1.0,1.0,68,0.00,,,0.00,0,Wunderground v.1.15,2013-09-30 01:11:00,
2013-09-29 21:14:00,62.4,51.3,30.15,West,278,1.0,1.0,67,0.00,,,0.00,0,Wunderground v.1.15,2013-09-30 01:14:00,
2013-09-29 21:15:00,62.4,51.7,30.15,West,278,1.0,1.0,68,0.00,,,0.00,0,Wunderground v.1.15,2013-09-30 01:15:00,
2013-09-29 21:20:00,62.1,51.4,30.14,West,278,0.0,0.0,68,0.00,,,0.00,0,Wunderground v.1.15,2013-09-30 01:20:00,
2013-09-29 21:22:00,62.0,51.3,30.14,West,278,0.0,0.0,68,0.00,,,0.00,0,Wunderground v.1.15,2013-09-30 01:22:00,
2013-09-29 21:24:00,61.9,51.6,30.14,West,278,0.0,0.0,69,0.00,,,0.00,0,Wunderground v.1.15,2013-09-30 01:24:00,
2013-09-29 21:27:00,61.8,51.5,30.14,West,278,0.0,0.0,69,0.00,,,0.00,0,Wunderground v.1.15,2013-09-30 01:27:00,
2013-09-29 21:28:00,61.7,51.4,30.14,West,278,0.0,0.0,69,0.00,,,0.00,0,Wunderground v.1.15,2013-09-30 01:28:00,
2013-09-29 21:32:00,61.5,51.6,30.14,West,278,0.0,0.0,70,0.00,,,0.00,0,Wunderground v.1.15,2013-09-30 01:32:00,
2013-09-29 21:33:00,61.4,51.5,30.14,West,278,0.0,0.0,70,0.00,,,0.00,0,Wunderground v.1.15,2013-09-30 01:33:00,
2013-09-29 21:37:00,61.2,51.3,30.14,West,278,0.0,0.0,70,0.00,,,0.00,0,Wunderground v.1.15,2013-09-30 01:37:00,
2013-09-29 21:38:00,61.2,51.3,30.14,West,278,0.0,0.0,70,0.00,,,0.00,0,Wunderground v.1.15,2013-09-30 01:38:00,
2013-09-29 21:40:00,61.1,51.6,30.14,West,278,0.0,0.0,71,0.00,,,0.00,0,Wunderground v.1.15,2013-09-30 01:40:00,
2013-09-29 21:44:00,60.8,51.7,30.14,West,278,0.0,0.0,72,0.00,,,0.00,0,Wunderground v.1.15,2013-09-30 01:44:00,
2013-09-29 21:46:00,60.7,51.6,30.14,West,278,0.0,0.0,72,0.00,,,0.00,0,Wunderground v.1.15,2013-09-30 01:46:00,
2013-09-29 21:47:00,60.7,51.6,30.14,West,278,0.0,0.0,72,0.00,,,0.00,0,Wunderground v.1.15,2013-09-30 01:47:00,
2013-09-29 21:49:00,60.6,51.5,30.14,West,278,0.0,0.0,72,0.00,,,0.00,0,Wunderground v.1.15,2013-09-30 01:49:00,
2013-09-29 21:52:00,60.5,51.8,30.14,West,278,0.0,1.0,73,0.00,,,0.00,0,Wunderground v.1.15,2013-09-30 01:52:00,
2013-09-29 21:55:00,60.5,51.8,30.14,West,278,0.0,1.0,73,0.00,,,0.00,0,Wunderground v.1.15,2013-09-30 01:55:00,
2013-09-29 21:56:00,60.4,51.7,30.14,West,278,0.0,1.0,73,0.00,,,0.00,0,Wunderground v.1.15,2013-09-30 01:56:00,
2013-09-29 21:58:00,60.4,51.7,30.14,West,278,0.0,1.0,73,0.00,,,0.00,0,Wunderground v.1.15,2013-09-30 01:58:00,
2013-09-29 22:00:00,60.3,51.6,30.14,West,278,0.0,0.0,73,0.00,,,0.00,0,Wunderground v.1.15,2013-09-30 02:00:00,
2013-09-29 22:04:00,60.2,51.9,30.14,West,278,0.0,0.0,74,0.00,,,0.00,0,Wunderground v.1.15,2013-09-30 02:04:00,
2013-09-29 22:06:00,60.1,51.8,30.14,West,278,0.0,0.0,74,0.00,,,0.00,0,Wunderground v.1.15,2013-09-30 02:06:00,
2013-09-29 22:12:00,59.9,51.6,30.14,West,278,0.0,0.0,74,0.00,,,0.00,0,Wunderground v.1.15,2013-09-30 02:12:00,
2013-09-29 22:13:00,59.8,51.9,30.14,West,278,0.0,0.0,75,0.00,,,0.00,0,Wunderground v.1.15,2013-09-30 02:13:00,
2013-09-29 22:15:00,59.7,51.8,30.14,West,278,0.0,0.0,75,0.00,,,0.00,0,Wunderground v.1.15,2013-09-30 02:15:00,
2013-09-29 22:20:00,59.5,51.9,30.14,West,278,0.0,0.0,76,0.00,,,0.00,0,Wunderground v.1.15,2013-09-30 02:20:00,
2013-09-29 22:21:00,59.5,51.9,30.15,West,278,0.0,0.0,76,0.00,,,0.00,0,Wunderground v.1.15,2013-09-30 02:21:00,
2013-09-29 22:23:00,59.4,51.8,30.15,West,278,0.0,0.0,76,0.00,,,0.00,0,Wunderground v.1.15,2013-09-30 02:23:00,
2013-09-29 22:26:00,59.3,51.7,30.14,West,278,0.0,0.0,76,0.00,,,0.00,0,Wunderground v.1.15,2013-09-30 02:26:00,
2013-09-29 22:27:00,59.3,51.7,30.14,West,278,0.0,0.0,76,0.00,,,0.00,0,Wunderground v.1.15,2013-09-30 02:27:00,
2013-09-29 22:32:00,59.1,51.9,30.14,West,278,0.0,0.0,77,0.00,,,0.00,0,Wunderground v.1.15,2013-09-30 02:32:00,
2013-09-29 22:33:00,59.1,51.9,30.14,West,278,0.0,0.0,77,0.00,,,0.00,0,Wunderground v.1.15,2013-09-30 02:33:00,
2013-09-29 22:34:00,59.1,51.9,30.14,West,278,0.0,0.0,77,0.00,,,0.00,0,Wunderground v.1.15,2013-09-30 02:34:00,
2013-09-29 22:37:00,59.0,51.8,30.14,South,169,0.0,1.0,77,0.00,,,0.00,0,Wunderground v.1.15,2013-09-30 02:37:00,
2013-09-29 22:42:00,58.9,51.7,30.15,SSE,162,0.0,1.0,77,0.00,,,0.00,0,Wunderground v.1.15,2013-09-30 02:42:00,
2013-09-29 22:43:00,58.8,51.6,30.15,SSE,162,0.0,1.0,77,0.00,,,0.00,0,Wunderground v.1.15,2013-09-30 02:43:00,
2013-09-29 22:45:00,58.6,51.4,30.15,SSE,162,0.0,2.0,77,0.00,,,0.00,0,Wunderground v.1.15,2013-09-30 02:45:00,
2013-09-29 22:47:00,58.4,51.6,30.15,SSE,162,0.0,2.0,78,0.00,,,0.00,0,Wunderground v.1.15,2013-09-30 02:47:00,
2013-09-29 22:49:00,58.2,51.4,30.15,SSE,162,1.0,2.0,78,0.00,,,0.00,0,Wunderground v.1.15,2013-09-30 02:49:00,
2013-09-29 22:52:00,58.0,51.2,30.15,SSE,162,1.0,1.0,78,0.00,,,0.00,0,Wunderground v.1.15,2013-09-30 02:52:00,
2013-09-29 22:53:00,57.8,51.0,30.15,SSE,162,1.0,1.0,78,0.00,,,0.00,0,Wunderground v.1.15,2013-09-30 02:53:00,
2013-09-29 22:57:00,57.7,51.2,30.15,SSE,162,1.0,1.0,79,0.00,,,0.00,0,Wunderground v.1.15,2013-09-30 02:57:00,
2013-09-29 22:59:00,57.6,51.1,30.15,SSE,162,0.0,1.0,79,0.00,,,0.00,0,Wunderground v.1.15,2013-09-30 02:59:00,
2013-09-29 23:04:00,57.5,51.4,30.15,SSE,162,0.0,0.0,80,0.00,,,0.00,0,Wunderground v.1.15,2013-09-30 03:04:00,
2013-09-29 23:05:00,57.5,51.4,30.15,SSE,162,0.0,0.0,80,0.00,,,0.00,0,Wunderground v.1.15,2013-09-30 03:05:00,
2013-09-29 23:08:00,57.5,51.4,30.15,SSE,162,0.0,0.0,80,0.00,,,0.00,0,Wunderground v.1.15,2013-09-30 03:08:00,
2013-09-29 23:10:00,57.4,51.3,30.15,SSE,162,0.0,0.0,80,0.00,,,0.00,0,Wunderground v.1.15,2013-09-30 03:10:00,
2013-09-29 23:14:00,57.4,51.6,30.15,SSE,162,0.0,0.0,81,0.00,,,0.00,0,Wunderground v.1.15,2013-09-30 03:14:00,
2013-09-29 23:15:00,57.4,51.3,30.15,SSE,162,0.0,0.0,80,0.00,,,0.00,0,Wunderground v.1.15,2013-09-30 03:15:00,
2013-09-29 23:18:00,57.3,51.2,30.15,SSE,162,0.0,0.0,80,0.00,,,0.00,0,Wunderground v.1.15,2013-09-30 03:18:00,
2013-09-29 23:20:00,57.3,51.5,30.15,SSE,162,0.0,0.0,81,0.00,,,0.00,0,Wunderground v.1.15,2013-09-30 03:20:00,
2013-09-29 23:22:00,57.2,51.4,30.15,SSE,162,0.0,0.0,81,0.00,,,0.00,0,Wunderground v.1.15,2013-09-30 03:22:00,
2013-09-29 23:23:00,57.2,51.4,30.15,SSE,162,0.0,0.0,81,0.00,,,0.00,0,Wunderground v.1.15,2013-09-30 03:23:00,
2013-09-29 23:24:00,57.2,51.4,30.15,SSE,162,0.0,0.0,81,0.00,,,0.00,0,Wunderground v.1.15,2013-09-30 03:24:00,
2013-09-29 23:26:00,57.1,51.3,30.15,SSE,162,0.0,1.0,81,0.00,,,0.00,0,Wunderground v.1.15,2013-09-30 03:26:00,
2013-09-29 23:30:00,56.8,51.4,30.15,SSE,162,0.0,0.0,82,0.00,,,0.00,0,Wunderground v.1.15,2013-09-30 03:30:00,
2013-09-29 23:31:00,56.8,51.4,30.15,SSE,162,1.0,1.0,82,0.00,,,0.00,0,Wunderground v.1.15,2013-09-30 03:31:00,
2013-09-29 23:35:00,56.5,51.1,30.15,SSE,162,1.0,2.0,82,0.00,,,0.00,0,Wunderground v.1.15,2013-09-30 03:35:00,
2013-09-29 23:37:00,56.4,51.3,30.15,SSE,162,1.0,2.0,83,0.00,,,0.00,0,Wunderground v.1.15,2013-09-30 03:37:00,
2013-09-29 23:38:00,56.3,51.2,30.15,SSE,162,1.0,2.0,83,0.00,,,0.00,0,Wunderground v.1.15,2013-09-30 03:38:00,
2013-09-29 23:40:00,56.2,51.1,30.15,SSE,162,1.0,1.0,83,0.00,,,0.00,0,Wunderground v.1.15,2013-09-30 03:40:00,
2013-09-29 23:41:00,56.2,51.1,30.15,SSE,162,1.0,1.0,83,0.00,,,0.00,0,Wunderground v.1.15,2013-09-30 03:41:00,
2013-09-29 23:44:00,56.1,51.0,30.15,SSE,162,0.0,1.0,83,0.00,,,0.00,0,Wunderground v.1.15,2013-09-30 03:44:00,
2013-09-29 23:47:00,56.0,50.9,30.15,SSE,162,0.0,1.0,83,0.00,,,0.00,0,Wunderground v.1.15,2013-09-30 03:47:00,
2013-09-29 23:51:00,56.0,50.9,30.15,SSE,162,0.0,0.0,83,0.00,,,0.00,0,Wunderground v.1.15,2013-09-30 03:51:00,
2013-09-29 23:52:00,55.9,51.1,30.15,SSE,162,0.0,0.0,84,0.00,,,0.00,0,Wunderground v.1.15,2013-09-30 03:52:00,
2013-09-29 23:55:00,55.8,51.0,30.15,SSE,162,0.0,0.0,84,0.00,,,0.00,0,Wunderground v.1.15,2013-09-30 03:55:00,
2013-09-29 23:56:00,55.8,51.0,30.15,SSE,162,0.0,0.0,84,0.00,,,0.00,0,Wunderground v.1.15,2013-09-30 03:56:00,
2013-09-29 23:57:00,55.8,51.0,30.15,SSE,162,0.0,0.0,84,0.00,,,0.00,0,Wunderground v.1.15,2013-09-30 03:57:00,